GFSWCAN_sfc_temp_171.txt.gz
Temp
50 51 51 51 51 51 51 51 51 51 51 51 51 51 51 51 49 47 45 50 45 38 40 41 43 39 37 35 32 33 35 33 30 31 30 29 27 30 28 28 26 27 23 22 22 20 20 37 37 33 40 40 40 41
50 50 50 50 50 50 50 50 50 51 51 50 51 51 51 51 49 49 43 47 49 42 41 43 43 42 40 40 36 32 36 32 35 31 28 29 29 26 28 28 28 29 32 30 30 31 38 36 39 39 40 40 39 40
49 49 49 50 50 50 50 50 50 50 50 50 50 50 51 50 49 47 44 47 45 41 39 40 39 40 42 39 41 36 33 37 35 36 31 31 31 31 28 27 26 32 34 33 34 35 36 38 38 37 37 39 41 40
48 48 49 49 50 50 50 50 49 50 50 50 50 50 50 50 48 47 45 48 47 42 36 35 40 38 39 40 40 40 38 37 36 35 32 31 32 33 31 32 29 35 34 34 33 38 36 37 36 37 37 39 39 39
48 48 48 49 49 49 49 49 49 49 49 50 49 49 50 49 47 45 47 49 50 42 35 33 38 37 38 39 39 39 39 36 34 33 31 32 31 31 29 29 26 33 35 35 36 41 39 38 38 37 37 38 39 38
48 47 48 48 48 48 49 49 48 49 49 49 49 49 50 48 46 44 36 45 48 45 38 32 35 34 35 37 37 36 36 34 34 34 31 30 32 33 29 29 36 34 37 39 39 38 41 41 39 37 37 38 37 37
47 47 47 48 48 48 48 48 48 48 49 49 49 49 49 49 43 38 38 44 49 47 38 31 31 34 36 34 33 34 34 32 34 32 31 31 31 33 30 30 38 36 37 37 37 38 39 39 39 39 36 36 40 36
46 47 47 47 48 48 47 48 48 48 48 49 49 49 49 49 46 41 46 50 49 43 41 31 30 32 36 30 30 31 32 32 32 30 30 31 30 29 29 37 34 34 35 36 36 35 37 37 39 38 36 35 34 35
47 47 47 46 47 47 47 47 48 47 48 48 48 48 44 42 40 43 48 50 46 42 33 33 28 27 36 31 32 32 31 28 30 29 29 31 28 26 35 37 34 32 33 34 34 33 35 35 37 37 37 36 35 34
45 46 47 46 46 47 47 46 47 47 48 48 42 38 35 41 46 48 41 35 38 39 36 31 29 29 34 31 30 31 30 28 25 29 29 28 28 34 34 34 34 33 32 30 30 33 33 33 35 35 36 38 39 37
44 46 46 46 46 46 47 47 47 47 46 38 34 33 38 44 39 35 31 32 31 31 34 29 28 30 35 30 30 31 28 28 19 24 26 24 26 30 32 31 32 31 31 31 31 32 33 33 33 34 35 36 37 37
45 45 46 46 46 46 46 47 47 39 34 37 37 38 36 33 32 30 29 31 31 30 32 28 30 33 32 34 30 29 27 26 17 30 27 23 26 30 30 30 29 30 30 31 32 32 32 32 33 34 34 35 36 37
45 45 45 45 45 46 46 46 46 46 44 39 34 30 30 31 26 26 25 28 28 32 31 30 30 32 32 33 28 28 23 23 29 25 23 22 29 29 28 28 28 29 31 31 32 32 33 33 34 34 35 36 36 35
45 45 45 45 45 46 45 45 46 42 38 32 28 25 26 26 27 27 25 30 30 33 33 34 30 32 33 32 30 23 27 28 24 23 21 20 25 26 27 28 28 29 31 31 29 29 31 29 30 32 34 35 34 33
45 44 44 44 43 45 45 44 44 39 35 29 28 23 25 29 26 29 32 32 32 37 34 32 32 33 32 30 28 24 21 19 26 24 22 23 26 26 27 28 28 28 30 30 31 30 27 26 27 31 32 33 34 33
44 42 38 44 44 44 44 39 35 36 31 28 27 24 28 26 25 30 32 32 34 37 33 33 30 28 28 27 18 17 19 17 21 22 24 27 28 28 30 31 30 30 32 32 31 32 32 31 32 31 32 33 33 33
42 32 42 44 44 42 41 33 31 25 26 25 24 29 27 27 26 29 31 32 36 34 30 28 26 23 28 18 19 19 18 21 25 24 26 29 31 31 32 31 31 31 32 31 31 31 30 31 29 29 30 31 31 32
32 34 42 43 38 36 31 28 20 20 21 23 24 24 27 27 26 27 30 33 33 30 27 23 25 16 14 15 22 24 24 25 29 31 31 32 33 32 32 31 32 31 30 30 28 26 28 30 30 29 28 30 28 29
35 35 42 42 36 26 20 19 19 15 21 25 26 26 27 27 27 28 29 31 33 33 30 24 20 15 25 25 25 27 28 28 28 29 30 31 32 32 31 30 29 28 29 28 31 31 31 30 31 30 30 31 30 31
42 41 40 39 35 16 12 16 24 20 20 23 25 24 25 24 26 26 26 27 30 30 27 25 24 27 26 28 31 29 28 28 29 29 29 31 31 27 29 28 29 30 30 31 29 34 31 31 31 31 31 31 30 30
36 31 34 30 18 18 16 15 16 22 24 22 23 23 21 23 22 21 21 26 25 22 23 25 26 28 30 30 30 31 29 31 29 29 28 27 28 28 27 25 26 29 29 29 29 29 31 29 29 30 30 30 30 30
31 34 17 20 10 10 13 18 19 21 19 18 18 17 15 15 17 19 20 22 21 22 25 26 26 27 27 26 26 26 28 28 27 27 29 29 25 22 23 25 23 22 24 25 26 27 27 29 30 29 28 29 30 28
31 23 11 9 11 9 10 15 12 13 10 10 10 10 9 12 14 20 17 19 22 24 25 25 26 28 26 26 25 24 24 24 23 23 23 23 24 24 23 23 24 21 22 24 24 23 23 30 29 28 27 27 26 24
27 11 6 -0 0 7 5 3 8 7 5 6 5 3 7 10 12 14 14 18 22 23 22 22 23 24 24 23 20 22 22 19 20 23 27 26 25 24 23 21 22 22 22 23 21 21 20 23 26 23 22 17 17 18
14 10 6 2 -4 2 -2 -3 -3 5 2 0 1 2 6 6 5 6 9 17 19 20 19 19 21 21 19 20 22 21 22 21 26 26 28 28 26 26 25 25 21 20 20 16 18 17 16 16 17 17 18 18 17 14
4 12 7 5 7 4 6 -0 -3 -3 -3 -1 -0 3 3 3 4 3 10 12 17 19 18 17 19 23 24 25 20 23 25 25 25 26 25 25 25 25 22 23 22 19 18 16 17 15 16 17 17 17 16 16 25 14
3 4 10 20 14 11 9 10 10 3 -5 -0 -2 -0 1 3 4 10 15 16 18 18 17 18 21 22 23 21 22 23 22 25 25 24 23 21 21 23 24 23 20 21 18 15 17 17 18 16 15 13 12 10 9 8
8 9 4 9 8 8 0 -1 -1 0 2 5 6 -0 0 2 7 14 14 16 14 9 10 14 20 19 18 20 19 19 16 17 19 17 20 21 20 18 15 17 22 28 19 17 16 15 15 13 12 9 8 7 4 5
9 13 12 5 3 5 5 5 6 12 15 8 5 5 5 11 11 11 16 14 9 4 6 10 11 16 12 13 12 12 14 16 15 14 16 15 14 15 12 12 12 12 14 19 28 19 12 11 8 7 2 3 2 -1
5 8 6 1 2 4 6 8 7 11 16 17 18 14 14 13 13 15 12 10 7 5 5 6 10 8 10 11 8 15 18 15 17 22 19 14 13 12 7 7 10 8 9 12 12 10 21 9 9 2 3 3 2 2
6 3 3 5 4 5 6 7 9 17 12 9 10 9 7 8 13 14 9 8 6 4 6 8 12 14 15 12 8 10 15 17 17 18 18 16 14 12 11 9 8 8 10 11 9 6 2 1 -1 -0 2 1 0 2
1 -5 -2 2 1 -0 -2 -2 -1 4 7 9 9 8 7 8 5 6 11 4 4 6 14 11 11 14 18 20 18 22 23 17 17 16 14 15 13 11 11 9 8 8 9 8 6 3 1 0 -1 -2 -2 -5 -4 -4
-12 -11 -12 -8 -5 -4 -5 -5 -4 -2 1 0 3 6 6 9 6 8 12 10 9 11 12 13 15 16 16 18 17 20 22 21 21 28 29 29 27 20 11 8 9 9 9 8 7 4 3 -2 -3 -5 -5 -5 -2 -1

GFSWCAN_sfc_temp_174.txt.gz
Temp
50 50 51 51 51 51 51 51 51 51 51 51 52 51 51 51 51 48 43 48 41 38 43 47 46 41 39 37 35 40 41 41 41 40 41 40 39 39 38 40 36 35 33 30 32 29 30 49 47 43 50 52 50 50
50 50 51 51 51 51 51 51 51 51 51 51 51 51 51 51 51 51 40 46 48 41 42 47 51 49 50 47 43 38 44 45 47 45 42 42 37 36 40 38 39 37 44 40 40 42 49 49 49 52 51 49 50 49
49 50 50 50 50 50 51 51 51 51 50 50 51 51 51 51 51 50 42 42 45 38 39 40 41 45 45 47 49 40 44 47 45 48 45 44 39 42 37 38 40 41 44 42 40 47 47 50 51 49 48 49 50 50
48 49 49 49 49 50 50 50 50 50 50 50 51 51 51 50 51 50 41 43 43 41 35 37 42 41 44 45 46 47 47 45 46 47 45 43 42 41 41 41 41 44 42 43 42 47 49 48 49 48 48 48 49 48
47 48 49 49 49 49 49 49 50 50 50 50 50 50 50 50 50 47 43 43 45 42 35 34 41 40 42 45 45 45 46 46 46 43 43 42 41 41 38 38 39 43 44 43 46 48 48 49 51 49 48 49 49 48
48 47 48 48 48 49 49 49 49 49 49 49 49 49 50 50 50 42 35 46 49 46 36 32 38 37 40 42 43 42 43 44 45 46 44 41 39 43 38 38 47 44 45 48 49 47 47 49 48 48 47 48 48 48
47 47 48 47 47 48 49 49 49 49 49 49 49 49 49 49 45 37 36 42 47 47 36 32 32 36 40 40 40 41 42 42 44 42 41 41 40 41 38 37 48 45 46 46 47 46 46 46 47 46 46 46 46 44
47 47 47 47 47 48 48 48 48 48 48 49 48 49 49 49 47 41 44 46 45 42 39 32 30 33 38 35 36 39 39 41 40 40 39 40 37 38 34 43 45 44 44 43 44 43 43 44 44 45 44 43 44 44
47 47 47 47 48 48 48 48 48 47 47 48 48 48 45 43 38 41 46 48 47 40 33 33 31 28 37 35 36 37 39 35 37 38 38 39 36 33 41 43 43 42 42 41 41 41 42 41 43 43 44 43 42 44
42 41 44 45 46 47 47 47 48 47 47 48 43 39 35 39 45 44 39 34 34 37 36 33 36 30 37 35 33 35 36 33 29 35 35 34 35 41 40 40 40 39 39 37 37 39 40 40 41 42 42 44 44 44
45 46 45 45 46 47 47 47 47 47 45 39 34 33 39 43 38 33 32 32 32 32 35 34 35 31 37 33 32 35 32 32 29 32 32 29 30 36 36 37 38 38 38 37 38 38 38 38 38 39 41 42 42 43
45 46 46 45 46 46 47 46 47 42 39 38 37 41 37 33 32 29 30 32 32 31 33 32 33 36 34 36 34 32 30 30 27 32 29 25 34 34 34 34 36 36 36 37 37 37 38 38 38 38 39 41 42 43
45 46 46 46 46 46 46 46 46 45 44 39 34 31 30 31 26 26 26 29 29 32 32 33 32 33 33 34 32 32 27 26 32 26 25 31 33 34 33 33 35 35 35 36 37 37 37 37 40 39 39 41 42 41
45 45 45 45 45 45 46 46 45 43 39 31 29 24 26 26 28 28 29 32 34 34 34 36 32 34 33 32 32 28 28 29 25 24 26 31 31 32 33 33 34 34 35 34 33 34 34 33 34 35 38 40 41 40
45 45 44 43 43 44 44 44 44 40 34 28 29 22 25 30 30 31 32 33 34 39 37 34 33 35 33 31 32 28 24 25 28 29 30 31 31 32 32 33 34 34 35 35 35 34 32 32 33 35 36 38 39 38
44 43 40 44 44 44 43 41 37 37 32 29 28 25 29 27 29 31 32 32 35 38 36 35 32 31 30 30 27 25 25 24 29 29 31 33 32 33 34 34 34 35 35 36 35 35 35 35 35 35 36 36 36 37
43 35 42 43 43 42 42 34 32 26 26 26 25 29 27 27 27 29 31 32 36 35 32 32 30 29 30 26 25 26 28 28 29 30 32 34 33 33 33 33 32 34 35 35 35 34 34 35 34 34 34 34 34 35
36 36 41 43 38 37 32 30 26 25 23 24 23 25 27 29 26 28 28 31 33 32 31 29 30 27 27 25 25 27 28 30 32 33 33 33 34 34 35 34 33 33 33 32 32 32 32 33 33 33 32 33 33 33
37 36 42 41 37 30 27 24 25 22 23 25 26 27 27 28 29 28 28 30 33 34 32 29 26 25 27 27 28 28 31 32 31 32 33 34 34 33 32 32 31 32 32 32 33 33 33 33 33 34 34 35 34 34
42 41 40 39 36 23 19 19 25 24 21 24 26 24 25 26 26 26 26 28 31 30 25 24 24 25 28 31 33 32 32 34 33 31 31 33 33 32 31 31 31 32 33 34 34 36 35 34 34 34 35 35 34 34
35 33 34 32 21 20 19 17 20 24 24 22 23 23 23 24 23 21 21 26 25 23 23 25 26 27 30 31 33 34 33 35 33 34 33 31 31 32 31 30 31 33 32 32 32 32 32 31 32 32 33 33 33 33
31 33 21 21 14 14 16 19 20 22 22 20 19 19 18 18 18 19 20 22 21 22 25 26 26 27 27 26 27 29 31 31 30 31 32 32 30 28 28 28 29 28 29 29 29 29 30 31 33 32 32 32 32 32
31 24 13 11 12 11 10 16 15 15 17 16 17 17 15 15 18 20 20 22 21 24 25 25 26 27 26 27 27 26 27 27 26 26 26 27 28 26 27 27 27 27 28 28 27 28 28 31 31 30 30 30 30 28
27 12 6 2 3 7 6 6 11 12 13 12 12 14 14 14 17 20 17 20 22 24 23 23 25 25 26 25 24 24 25 27 27 28 29 28 27 26 26 25 26 26 25 26 26 25 25 27 29 27 26 25 25 25
15 10 7 2 -2 5 5 3 5 10 6 6 9 11 11 11 13 13 15 19 21 21 20 23 24 24 23 23 23 24 25 27 27 26 28 28 29 27 26 27 26 24 23 25 25 24 23 24 25 25 24 24 23 22
5 12 8 8 9 6 7 3 1 5 5 6 7 8 8 12 13 11 15 17 18 19 19 20 23 24 24 24 23 24 24 26 27 27 25 26 25 26 25 24 24 25 23 23 24 24 23 23 23 21 20 21 25 21
4 7 14 20 15 12 11 10 11 7 6 6 7 7 9 8 8 14 18 19 19 18 18 19 21 23 23 22 23 23 23 26 25 24 23 22 23 23 25 23 20 23 22 23 24 25 23 22 20 19 18 17 15 16
7 8 5 8 9 8 1 1 2 2 5 8 10 5 8 6 11 15 16 17 14 12 13 18 20 20 19 20 19 21 20 20 20 21 22 21 19 17 18 20 26 27 22 22 21 21 21 20 19 18 17 15 13 12
8 13 12 4 3 5 5 6 8 14 16 12 9 9 8 13 13 13 16 16 13 13 13 16 15 16 16 18 17 18 19 19 18 16 17 17 18 18 15 15 17 18 20 25 26 19 14 16 15 14 12 13 11 10
5 9 6 -1 1 3 7 9 9 11 16 17 18 15 14 13 15 16 14 13 12 11 12 11 13 14 18 18 16 17 19 18 20 23 19 18 17 15 13 14 14 14 16 18 17 18 21 14 15 11 11 11 12 11
6 4 3 5 3 5 6 6 8 16 13 13 13 9 9 11 15 15 13 11 9 7 9 11 13 15 16 15 15 16 17 19 19 18 18 17 15 15 14 14 14 14 14 14 14 13 11 10 9 9 9 7 5 8
1 -6 -2 3 1 2 -0 1 2 2 6 8 6 9 9 8 5 9 13 7 8 8 15 12 13 14 18 19 19 21 23 19 19 18 17 17 16 15 15 14 14 13 13 11 11 10 8 8 9 7 8 5 4 4
-11 -11 -12 -7 -4 -4 -4 -3 -2 -2 1 -0 4 6 7 9 5 10 13 12 11 12 13 14 15 17 17 17 18 22 23 21 24 27 27 25 23 19 15 14 13 13 12 12 10 10 8 4 6 4 3 2 3 3

GFSWCAN_sfc_temp_177.txt.gz
Temp
50 50 50 51 51 51 52 52 52 52 52 52 52 52 52 52 52 50 46 51 42 35 37 42 46 43 44 42 37 42 37 37 35 32 37 42 42 46 45 48 38 37 34 33 37 31 28 55 49 44 51 54 54 54
49 50 50 51 51 51 51 51 51 52 52 51 51 51 52 51 52 51 41 48 50 37 37 44 48 50 53 53 47 42 41 39 40 38 45 47 44 47 46 40 48 39 47 42 43 42 52 54 52 55 54 50 51 52
49 49 49 50 50 50 51 51 51 50 50 50 51 51 51 52 52 50 45 47 44 36 36 36 38 47 53 55 57 40 38 41 41 50 48 50 43 48 41 43 45 47 52 45 44 52 51 54 56 54 54 51 52 53
48 49 49 49 50 50 50 50 50 51 51 51 51 51 51 51 51 51 44 47 43 37 31 37 45 45 53 50 52 53 50 47 44 44 44 47 44 49 48 46 47 47 46 46 46 51 53 52 54 53 53 53 51 52
48 48 48 48 48 49 50 50 50 50 50 50 50 50 50 50 50 49 48 47 48 37 33 36 41 42 44 45 46 45 44 44 40 38 41 44 48 46 45 44 43 47 47 44 47 54 53 52 54 53 51 51 52 51
48 48 49 48 48 48 49 49 49 49 50 50 50 50 50 50 50 44 38 47 48 44 35 32 37 37 38 41 42 41 43 45 42 43 46 48 45 46 42 42 52 52 53 55 52 52 51 51 51 50 50 50 51 50
47 47 47 48 48 48 48 48 48 49 49 49 49 49 49 49 47 38 36 46 48 41 33 32 33 35 38 38 38 39 41 42 44 47 45 47 45 45 43 40 52 51 52 51 51 49 48 49 49 49 48 50 48 48
47 47 48 48 47 47 47 47 48 49 49 49 49 48 49 49 48 41 46 49 48 38 34 32 32 32 36 33 33 39 38 42 43 44 44 44 42 43 37 48 53 49 49 48 48 48 47 47 47 47 48 47 47 48
46 46 47 46 46 48 48 48 48 48 48 48 48 48 46 44 39 43 47 47 45 38 32 33 30 29 36 35 36 36 40 34 40 40 42 43 42 35 44 49 51 47 46 46 45 44 45 44 45 46 46 46 44 47
45 44 45 44 46 45 47 47 47 48 47 47 44 40 35 41 45 45 42 36 36 36 34 34 38 31 37 36 35 34 37 35 31 38 40 37 39 47 48 47 47 45 44 42 40 40 41 41 43 45 45 46 47 47
46 47 46 46 47 46 46 46 47 47 46 41 36 33 42 46 39 35 31 31 32 30 34 36 37 32 39 34 33 39 34 35 31 35 35 33 32 43 45 44 44 43 43 43 42 42 41 41 40 41 42 45 45 45
46 46 46 47 47 46 46 47 47 44 41 41 39 43 40 33 32 30 30 32 32 32 33 34 35 36 34 38 34 34 33 32 30 34 32 28 38 38 39 39 40 41 40 40 41 40 41 41 41 41 41 42 44 45
46 46 45 46 46 46 46 46 47 46 45 42 36 30 30 30 26 26 26 30 31 33 33 35 33 34 33 35 33 34 29 29 34 28 27 35 37 37 37 38 38 38 37 38 39 39 39 39 40 40 40 42 43 44
46 45 45 46 45 46 45 46 46 45 40 31 28 25 27 27 29 30 29 30 33 36 35 37 33 34 34 33 33 30 31 30 25 25 28 36 36 36 37 37 38 38 37 35 35 35 36 33 35 36 38 41 43 42
45 45 45 44 44 45 45 45 44 43 37 28 29 24 27 31 32 32 32 32 34 37 38 34 33 34 33 31 33 29 25 25 28 30 33 33 35 36 36 36 37 38 39 38 38 35 32 32 33 36 37 40 41 39
43 43 43 43 43 44 44 43 41 40 34 28 28 27 31 29 31 31 32 32 35 37 36 35 32 32 31 32 29 28 27 27 31 31 33 35 35 36 36 37 37 38 39 38 38 38 38 37 37 36 38 38 38 38
41 38 43 44 43 43 42 38 36 31 29 28 28 31 29 28 28 30 30 31 33 34 32 33 31 31 32 30 29 32 30 29 30 32 35 36 35 33 33 35 35 36 37 37 37 36 35 36 35 34 34 35 35 35
39 42 41 43 41 39 36 33 30 27 24 28 25 28 29 30 28 30 29 30 30 32 33 31 33 30 30 28 28 28 30 32 34 34 34 35 36 35 34 33 35 35 34 32 32 33 33 34 33 33 33 34 34 34
41 41 42 42 40 36 30 28 29 24 25 27 28 29 29 30 31 30 29 30 32 34 33 31 29 28 28 30 29 30 31 33 33 34 35 36 37 35 33 32 32 33 33 34 35 35 34 34 34 35 35 35 34 35
42 41 40 39 39 31 26 26 28 26 23 26 28 26 27 27 27 27 28 28 31 29 25 24 24 26 29 32 35 34 35 37 35 33 32 34 35 33 31 32 33 34 35 35 35 36 35 35 34 35 35 35 33 32
38 35 35 36 29 29 26 23 25 26 26 24 24 24 25 27 24 23 22 25 25 23 23 26 26 28 31 36 37 37 35 36 34 36 34 32 34 33 32 32 34 35 34 34 33 33 33 32 33 33 33 33 33 33
33 35 29 29 24 24 23 24 22 24 24 22 22 22 20 20 20 21 22 23 21 22 24 26 27 28 27 28 29 32 33 33 33 34 35 35 32 30 29 30 31 30 30 30 31 31 31 32 33 32 32 32 33 33
34 31 24 23 19 20 16 22 20 19 19 18 21 20 19 19 21 23 21 22 22 24 25 26 26 27 26 27 28 28 30 30 29 29 30 30 29 29 29 29 29 30 29 28 29 29 29 32 32 31 31 31 30 29
29 18 14 14 15 12 16 13 17 17 18 17 18 17 16 16 18 22 18 20 22 24 24 24 26 26 27 26 25 25 27 30 29 29 31 30 27 26 27 28 29 28 27 28 28 27 27 29 31 29 28 27 27 27
19 13 14 9 12 13 11 13 13 16 13 13 16 16 15 15 17 16 17 19 21 21 22 25 25 26 24 24 25 26 27 28 29 26 28 30 29 28 27 28 27 26 26 29 27 26 26 27 27 26 26 25 23 22
9 13 13 13 14 15 12 10 10 10 12 14 12 14 14 18 16 13 16 17 19 19 20 21 23 25 24 26 25 25 25 27 29 26 25 26 27 28 27 26 27 25 25 27 28 26 25 25 23 22 21 21 26 21
10 10 18 23 19 17 16 15 15 15 12 12 14 14 16 12 12 15 19 19 19 19 19 20 23 24 23 24 25 24 25 26 25 24 24 23 23 25 27 25 23 23 25 26 27 26 24 23 22 21 19 18 17 17
13 14 9 13 13 15 10 11 12 11 14 14 15 10 11 12 13 16 18 19 17 17 19 21 22 22 22 22 22 23 22 23 22 22 23 22 21 20 20 24 27 28 25 24 24 23 23 22 21 19 18 16 15 14
13 16 16 5 9 13 11 12 14 17 18 17 15 13 12 15 15 15 18 17 17 18 19 20 19 20 21 21 21 22 23 24 21 18 19 20 21 20 18 21 22 23 25 25 28 22 17 18 17 16 14 15 13 13
11 12 13 6 5 9 10 11 13 15 20 20 20 17 16 16 17 18 17 16 15 15 15 15 16 18 20 20 19 19 20 21 21 25 22 20 19 17 17 18 19 19 21 21 20 20 23 18 18 14 14 13 15 13
11 12 11 12 9 10 9 9 11 18 17 17 17 15 13 14 16 16 15 14 14 15 16 16 17 18 18 17 18 19 18 20 18 19 20 19 18 17 17 17 17 18 18 18 17 16 15 14 13 12 11 8 7 10
9 4 8 7 8 8 8 9 9 11 12 14 12 14 14 14 10 13 15 14 14 13 17 16 16 17 19 21 21 22 24 20 19 19 19 19 18 17 17 16 15 16 16 15 14 13 11 11 11 9 9 6 5 4
2 3 1 5 5 6 5 5 5 7 8 8 8 9 10 12 8 12 17 16 14 14 15 16 18 19 18 19 21 23 23 22 24 27 26 25 24 21 17 16 16 16 15 14 13 12 9 6 7 4 4 2 3 4

GFSWCAN_sfc_temp_180.txt.gz
Temp
49 50 50 50 51 51 51 51 52 52 52 52 52 52 52 52 52 47 43 47 39 34 36 40 41 35 36 37 31 38 37 38 35 31 31 32 30 36 37 38 30 29 26 25 27 25 23 46 43 38 42 42 43 44
50 50 50 50 50 50 51 51 51 51 51 51 52 51 51 52 52 50 40 47 47 36 36 43 44 45 43 42 38 38 39 38 39 33 34 33 33 39 39 34 38 30 37 32 35 35 45 47 45 45 45 43 41 42
49 49 50 50 50 50 50 51 51 51 51 51 50 50 50 51 52 50 42 43 41 35 35 36 36 44 47 46 48 35 39 43 38 41 36 36 32 41 33 35 34 38 43 36 38 43 44 47 49 47 44 42 43 44
49 49 50 49 49 50 49 50 51 51 51 51 51 51 51 51 50 50 41 44 41 36 28 33 46 42 49 48 46 45 43 45 45 41 34 32 32 42 40 41 39 38 40 38 38 43 42 47 48 47 44 45 43 45
49 49 49 49 49 49 49 49 49 50 50 50 50 50 50 51 50 47 44 45 45 36 29 32 41 44 47 46 46 46 44 41 38 35 33 33 37 35 38 35 33 39 37 36 36 45 44 44 46 46 43 42 43 42
48 48 48 48 48 49 49 49 48 48 49 49 49 50 50 50 50 41 34 42 46 43 32 27 38 37 39 41 43 42 42 40 40 36 35 38 42 37 32 30 43 43 45 46 43 42 43 45 45 45 44 43 43 41
48 48 47 47 47 48 48 48 48 48 49 49 49 49 50 50 43 36 34 42 46 43 30 26 30 34 38 38 38 39 40 38 37 35 36 38 39 39 34 31 44 43 45 42 43 41 40 43 43 43 44 44 44 41
48 48 47 48 48 48 49 48 48 48 48 48 49 49 49 49 47 39 44 48 47 37 34 25 29 31 35 33 31 37 34 35 35 35 37 37 35 35 30 40 43 42 42 41 42 42 41 40 41 42 43 43 41 41
47 47 47 46 46 47 47 45 45 48 48 48 49 48 43 40 35 38 47 48 45 38 29 29 29 27 34 33 34 33 36 31 36 33 35 36 33 28 37 41 42 40 40 40 40 39 38 38 40 42 41 40 39 40
46 46 46 46 46 46 47 48 47 47 48 48 42 35 30 38 47 45 40 35 34 34 32 30 35 30 34 34 32 32 33 32 29 32 35 31 30 41 43 42 42 41 39 38 34 33 34 34 38 38 40 41 41 42
45 46 46 47 47 47 47 47 47 47 46 37 32 30 38 46 38 32 29 30 32 29 32 34 35 30 37 32 32 33 31 31 28 29 29 26 27 37 42 40 39 38 38 37 36 36 35 35 36 36 38 40 41 40
46 46 47 47 46 47 47 47 47 42 38 38 37 40 37 30 25 25 27 29 30 30 33 32 32 35 34 37 32 31 31 30 24 30 26 24 30 33 34 35 35 35 35 35 36 35 35 37 37 36 37 38 39 40
46 46 46 46 46 47 47 47 47 46 44 39 33 27 25 25 22 22 20 26 29 32 33 33 31 32 31 33 32 31 27 26 30 27 26 27 31 34 32 33 33 32 32 33 34 34 34 34 35 35 36 37 38 38
46 46 46 46 45 46 46 46 46 44 38 29 22 15 22 22 24 27 28 29 31 31 32 35 32 32 32 31 31 28 28 29 24 23 20 25 30 32 32 32 33 32 32 29 30 30 31 29 30 31 33 35 38 38
46 46 45 45 44 45 45 45 45 40 34 24 22 20 20 28 30 30 31 31 32 34 32 32 32 33 32 30 31 25 23 23 26 22 25 28 31 31 30 32 32 33 33 32 32 29 25 26 27 30 32 34 36 36
46 43 41 43 43 43 44 43 39 35 31 23 22 22 28 25 25 27 29 29 32 31 33 32 32 31 30 31 25 22 21 21 24 25 28 30 30 32 31 32 32 33 33 32 32 33 32 31 31 31 31 32 33 34
41 35 44 44 43 43 43 36 34 30 23 25 22 28 27 27 25 27 28 28 32 28 31 32 29 29 30 28 28 25 22 27 28 29 31 31 31 32 31 30 30 31 31 31 30 30 30 30 28 27 28 29 30 31
37 39 43 43 40 39 34 34 30 25 22 23 24 25 27 28 27 28 27 29 27 28 32 30 31 29 27 27 27 26 28 30 30 30 31 31 32 33 33 29 30 29 29 27 25 24 25 25 28 29 27 30 29 30
40 39 42 43 39 32 24 24 26 22 22 24 27 28 28 28 29 27 28 29 30 31 31 30 28 25 26 28 27 29 30 29 29 30 30 31 32 32 31 31 30 31 31 29 31 30 30 29 30 30 31 31 31 32
43 42 40 41 39 25 16 20 27 23 20 24 25 22 24 25 26 26 26 26 29 28 24 22 22 25 26 30 32 32 32 33 31 28 28 30 30 28 29 30 30 31 32 32 32 35 32 32 32 33 33 33 31 30
38 35 36 35 25 24 20 18 20 24 23 23 22 22 22 24 23 22 22 25 23 20 22 24 25 27 30 31 33 32 33 34 33 32 29 27 30 30 29 30 31 32 31 31 30 31 31 29 30 31 31 30 30 30
32 36 24 26 16 16 14 19 17 22 21 22 22 21 19 19 19 20 22 21 19 20 22 24 25 26 25 25 27 29 29 30 31 32 34 33 29 28 27 28 28 27 27 28 29 28 28 30 30 30 28 28 30 29
34 28 18 15 10 9 9 16 11 15 18 18 21 19 18 18 20 23 19 20 21 23 25 26 25 26 25 26 27 27 28 28 27 28 28 27 27 27 27 26 26 26 25 25 26 26 26 31 31 27 27 27 27 25
29 12 7 5 5 4 7 5 11 15 17 17 17 16 15 15 18 20 16 18 21 23 24 25 26 25 25 25 23 24 25 28 27 27 28 27 25 25 26 24 24 23 24 25 25 24 24 27 28 26 25 23 22 22
14 8 7 1 3 3 1 2 4 11 13 14 15 15 14 15 17 16 15 17 19 19 20 24 24 24 23 23 24 24 26 26 26 24 25 27 27 27 25 23 21 20 21 20 21 22 21 22 22 22 21 20 18 16
3 6 5 6 4 6 5 2 4 5 9 12 12 14 14 17 14 12 15 16 18 18 18 18 21 23 22 24 23 23 23 25 27 23 22 24 24 27 25 19 18 19 20 19 21 20 19 18 17 15 14 16 23 12
-0 1 16 22 17 14 11 12 13 10 4 6 10 12 14 11 11 14 18 18 17 18 18 20 21 22 22 22 23 23 24 23 22 21 22 21 22 22 21 19 16 19 19 21 20 20 19 17 15 13 11 10 10 9
7 9 3 6 6 8 2 5 5 7 10 13 11 6 6 9 11 15 17 18 17 17 19 21 21 21 20 20 21 22 20 21 20 21 22 21 18 17 17 20 23 28 20 20 19 18 17 15 13 12 10 9 6 8
7 13 12 0 1 4 5 7 10 14 16 13 10 9 10 13 14 14 17 17 18 18 18 18 19 20 20 20 20 19 20 20 19 18 17 15 13 15 13 13 15 16 18 24 27 19 13 13 11 10 7 6 5 4
5 9 5 -1 -1 1 4 7 7 12 17 17 17 14 14 14 15 17 15 14 12 12 14 15 16 15 15 16 15 15 17 15 16 20 15 13 11 9 6 9 12 13 14 15 14 14 23 13 13 5 7 6 5 4
8 6 3 4 2 5 5 7 8 17 12 11 11 7 9 11 14 14 12 11 10 11 12 13 14 15 14 13 11 12 13 16 10 12 15 14 11 9 9 9 9 11 11 11 10 10 8 7 5 2 2 1 2 2
3 -5 -1 0 -0 4 5 5 5 5 7 5 4 7 8 7 3 8 12 9 8 9 15 13 12 13 16 16 14 15 22 16 14 12 12 14 12 11 11 10 10 11 10 9 8 6 5 3 2 1 0 -3 -4 -3
-5 -5 -6 -3 -4 -4 -3 -3 -3 -1 0 -1 3 4 3 5 2 6 9 9 9 9 10 13 14 16 16 15 16 18 20 16 20 27 26 25 23 19 12 9 10 11 10 9 6 4 3 -1 -2 -3 -4 -4 -5 -5

GFSWCAN_sfc_temp_183.txt.gz
Temp
51 50 50 50 51 50 51 51 51 51 51 51 52 52 52 52 52 45 39 42 38 32 34 38 38 32 31 30 25 31 30 30 32 29 29 28 25 30 30 34 27 29 25 26 30 25 22 42 39 37 43 41 41 39
50 51 50 50 50 50 51 50 51 51 51 51 51 51 51 50 51 49 36 43 42 36 34 39 41 42 42 40 34 32 31 33 36 33 30 30 27 28 31 26 35 29 34 28 31 32 42 43 42 44 45 43 40 39
49 49 49 50 50 50 50 50 50 50 51 51 51 50 51 50 50 47 37 38 38 31 32 33 33 40 44 43 45 31 35 36 36 39 35 34 31 31 26 30 34 35 41 35 33 39 42 45 45 45 46 43 42 42
48 49 49 49 49 50 49 50 50 50 50 51 51 51 51 51 51 50 37 38 36 33 27 29 42 36 42 43 42 42 40 41 41 40 35 33 31 37 32 33 31 38 38 38 34 38 41 44 45 45 46 44 42 43
48 49 49 49 49 49 49 49 49 50 49 49 50 50 50 50 50 45 38 39 41 33 25 28 36 40 43 42 40 41 40 36 33 31 32 31 35 34 33 33 32 38 38 37 37 41 43 41 42 45 45 43 41 41
48 48 48 48 48 48 48 48 49 49 49 49 49 49 49 49 49 38 31 38 41 40 31 26 33 33 40 39 38 38 39 39 35 33 33 36 39 37 30 29 37 43 43 43 42 41 41 40 41 42 44 43 42 40
47 48 48 48 48 48 48 48 48 49 49 49 48 49 49 49 39 34 30 37 45 41 31 22 22 33 37 38 37 37 40 39 36 35 34 36 37 39 33 31 43 44 42 41 42 42 38 41 41 42 43 44 44 41
47 47 48 48 48 48 48 48 48 48 48 48 48 48 48 48 45 36 41 46 46 37 33 20 20 28 36 32 31 36 34 34 35 35 36 36 35 34 30 36 45 45 41 39 40 40 40 40 40 40 42 42 41 41
47 47 47 47 47 47 46 47 47 47 47 47 47 48 40 36 30 33 47 47 43 36 23 25 23 22 35 33 34 33 34 29 34 32 33 35 32 29 34 38 42 42 40 40 39 38 37 37 38 38 40 40 39 40
46 46 46 46 46 47 47 47 47 48 47 47 39 33 25 32 45 42 36 29 33 33 31 27 32 28 33 33 32 31 32 32 27 31 34 31 29 38 40 42 43 42 39 37 35 33 34 34 37 36 37 40 40 40
46 46 46 46 47 47 47 47 48 47 46 36 31 26 33 44 35 28 25 27 27 26 30 31 31 28 36 30 31 33 31 32 28 28 29 26 26 34 41 41 41 39 37 36 37 37 37 36 36 35 36 37 38 40
46 45 46 47 47 47 47 47 48 39 36 36 35 38 33 25 16 16 15 26 28 25 31 30 31 33 34 37 32 31 30 30 25 29 29 25 30 35 36 34 33 34 35 35 36 36 35 36 35 35 35 35 36 38
45 45 46 46 47 46 47 46 47 46 43 36 30 20 25 14 18 10 6 19 21 31 32 32 31 33 31 33 32 30 26 27 29 27 26 28 33 32 30 31 30 31 33 33 34 34 34 33 33 34 34 35 35 36
45 45 46 46 46 46 46 46 46 43 35 27 17 13 16 11 14 17 21 26 29 31 31 31 32 31 32 30 31 27 27 28 23 22 21 26 30 31 30 32 31 29 30 28 30 31 31 28 30 30 32 34 35 35
45 45 46 45 45 45 45 45 44 37 32 21 18 13 9 23 28 29 30 28 31 33 32 30 31 31 31 30 30 25 23 20 21 22 25 27 30 31 29 29 30 30 29 29 29 26 22 24 26 29 30 32 34 34
46 45 40 45 45 43 43 42 36 34 29 19 11 15 22 23 24 26 26 26 31 29 29 30 30 30 29 30 23 19 19 18 23 24 26 29 28 28 28 29 29 30 30 29 30 30 30 29 29 28 29 30 31 31
41 34 41 44 44 43 43 35 32 23 19 14 13 20 24 22 23 23 25 27 30 26 24 31 29 29 31 26 26 24 20 27 27 28 28 28 30 27 27 28 29 29 28 28 28 27 27 27 26 26 27 27 29 29
36 37 42 43 39 38 32 32 26 17 11 14 14 18 22 20 22 24 26 27 27 26 25 27 29 27 24 24 26 26 28 28 30 30 30 31 31 29 30 28 29 28 27 24 24 23 24 25 26 27 26 28 28 28
35 36 43 43 37 28 23 25 25 14 16 16 22 24 27 24 25 26 26 27 28 29 27 27 24 22 24 28 27 28 28 28 28 29 30 31 32 31 30 30 29 29 28 26 28 28 28 27 27 28 28 30 29 30
42 42 42 43 39 23 15 13 21 15 14 21 21 18 19 21 24 24 25 26 26 27 23 19 21 24 25 28 31 30 29 30 29 27 27 28 30 30 30 31 30 31 31 31 31 33 30 30 31 32 32 32 31 29
37 36 38 34 23 20 14 11 15 17 21 21 21 20 19 23 21 21 20 24 22 18 18 22 23 25 28 29 31 31 31 31 29 29 27 26 29 30 29 30 30 31 30 30 29 30 30 29 30 31 30 29 29 30
32 36 18 23 11 7 9 16 16 15 16 18 20 20 16 17 17 19 22 19 18 20 22 23 24 25 25 25 27 29 29 29 29 30 31 31 27 27 28 28 29 27 27 28 29 28 28 29 29 29 28 28 29 27
32 24 10 6 9 5 8 10 9 6 12 16 19 17 16 15 19 23 17 19 20 23 24 25 25 26 25 26 27 27 28 27 26 26 26 27 27 27 27 27 28 27 26 25 26 27 28 31 30 27 27 26 25 23
28 9 5 4 -1 4 -0 1 3 10 13 16 15 13 13 14 18 18 15 17 20 22 21 24 25 25 25 25 24 24 26 27 26 26 27 26 25 24 25 24 24 24 25 25 25 24 25 26 27 25 23 21 20 20
15 9 4 -1 -6 1 -5 -2 -1 11 13 15 15 14 15 14 12 13 14 16 18 18 18 21 24 24 22 23 23 24 25 26 25 23 24 27 26 24 23 22 22 21 23 24 23 22 21 22 21 20 19 18 16 14
3 3 4 5 -0 3 1 0 2 6 10 13 14 15 14 16 11 10 14 15 17 17 17 17 20 22 21 22 22 22 22 24 25 22 22 23 24 24 20 21 22 21 21 23 23 19 17 17 15 14 13 17 22 10
0 0 13 20 16 13 8 10 12 9 3 5 11 12 12 10 9 13 18 17 16 18 18 20 21 21 21 21 23 23 22 22 21 21 21 21 21 21 23 22 20 20 20 19 19 20 17 15 13 12 10 9 7 7
2 5 2 4 3 4 -1 -0 2 5 9 13 12 6 5 8 10 14 16 17 17 18 19 20 21 21 20 21 22 22 21 21 21 21 23 22 21 19 20 24 24 27 20 19 18 17 16 14 12 10 9 7 4 4
3 9 9 -1 -3 -1 1 2 6 12 16 12 8 8 8 12 14 13 16 16 17 18 17 18 19 20 20 20 20 19 19 20 19 18 18 17 18 17 16 18 18 18 21 22 25 17 11 12 10 9 6 6 2 1
2 7 2 -6 -3 -1 3 6 5 9 15 16 16 14 14 13 14 16 15 14 13 14 14 16 17 17 16 17 17 18 18 17 18 20 19 17 15 13 10 14 15 12 13 16 15 17 22 10 10 3 7 5 5 4
6 3 -0 -0 -2 -0 1 6 7 15 11 8 7 7 7 9 14 14 13 12 12 13 14 14 15 15 16 16 15 16 18 18 15 17 16 14 12 11 10 9 8 10 10 11 11 9 7 5 3 3 3 1 2 0
0 -7 -3 -2 -0 1 0 -3 -3 -1 3 4 4 7 7 6 4 9 12 8 8 8 14 12 11 13 16 16 17 18 22 15 14 14 13 14 12 9 11 10 9 10 10 9 7 6 5 3 2 0 -1 -5 -6 -6
-10 -10 -10 -7 -5 -5 -4 -4 -4 -5 -4 -5 -1 2 0 3 1 5 9 8 9 8 10 12 14 15 15 14 14 17 19 14 19 25 25 24 22 18 12 10 11 11 10 8 5 4 2 -2 -4 -6 -6 -7 -7 -7

GFSWCAN_sfc_temp_186.txt.gz
Temp
50 51 50 50 50 50 51 51 51 51 51 51 50 51 51 51 51 42 37 40 35 31 32 35 36 30 30 30 25 30 28 28 28 22 24 25 22 27 26 30 26 27 23 24 26 25 24 39 37 35 40 41 41 40
50 50 50 50 51 50 51 51 51 51 51 51 51 51 51 51 51 47 34 40 40 36 34 38 39 41 40 38 33 30 32 30 31 31 28 28 26 25 26 23 32 25 33 27 29 30 39 39 41 43 42 42 42 40
49 49 49 49 50 50 50 50 50 50 50 50 51 51 51 51 51 46 36 38 39 31 29 29 31 38 42 42 44 31 33 36 32 34 27 29 25 30 24 27 27 31 36 35 34 40 42 45 46 42 44 43 44 43
48 48 48 49 49 49 50 50 50 50 50 50 50 51 51 51 51 50 38 37 38 34 26 27 39 33 40 41 40 40 38 37 36 33 30 28 24 34 32 30 29 33 33 32 34 40 40 44 41 45 43 45 44 44
48 48 48 49 49 49 49 49 49 49 49 49 50 49 48 50 50 43 37 37 39 34 24 27 33 38 39 37 36 38 36 34 32 30 28 27 32 33 33 33 31 34 32 31 33 42 40 45 43 41 42 43 45 42
47 48 48 49 49 49 48 48 48 49 49 49 49 49 49 49 49 37 29 36 38 37 30 23 31 30 35 35 34 35 35 35 35 31 31 33 37 34 29 28 38 42 44 45 41 46 47 44 43 40 42 42 43 42
47 48 48 48 48 48 48 48 48 48 48 48 49 49 49 48 39 33 29 36 43 40 30 25 23 29 37 37 32 32 34 34 33 31 30 33 34 35 32 28 39 42 44 45 44 43 39 40 41 42 42 43 45 42
47 47 47 48 48 48 48 48 47 48 48 48 48 48 48 48 44 35 41 46 45 32 31 21 18 22 33 26 30 37 34 34 33 33 35 32 35 34 29 36 42 45 46 42 40 44 41 38 39 39 40 41 41 41
47 46 47 47 47 47 46 46 46 47 47 48 48 47 40 36 30 32 46 46 39 31 18 22 15 16 32 31 34 33 33 29 34 31 33 34 32 28 34 36 37 41 43 44 40 38 36 37 38 39 39 39 39 40
46 46 47 47 46 46 47 47 47 47 47 47 38 34 27 31 42 42 34 26 29 32 29 22 26 23 29 30 30 31 32 30 27 31 35 31 31 39 41 39 42 43 44 40 35 32 34 35 36 37 37 39 40 40
46 46 47 46 46 47 47 47 48 47 45 34 30 27 32 42 32 22 14 17 26 24 29 28 29 26 34 27 28 33 29 31 27 28 30 28 28 37 44 43 45 42 41 40 38 37 38 37 36 36 36 37 38 38
46 46 46 46 46 47 47 47 47 39 34 35 33 35 33 28 18 17 12 16 23 23 27 26 29 31 30 36 31 31 28 29 25 32 29 23 30 36 39 42 42 37 35 35 35 35 35 36 36 35 35 34 35 36
46 46 46 46 46 47 47 47 47 46 41 36 31 20 19 17 16 14 -0 9 18 27 31 31 29 31 31 32 30 30 27 27 28 23 22 26 31 29 28 29 29 31 33 33 33 34 34 33 34 33 33 34 33 34
46 45 45 45 46 47 46 46 46 43 35 28 22 15 17 2 12 12 13 22 28 29 29 29 30 31 32 29 31 27 27 27 17 16 19 21 25 27 28 29 29 28 30 29 30 31 31 29 31 31 32 33 33 34
46 46 46 45 45 46 45 45 42 37 32 25 19 10 8 16 17 27 27 26 30 31 29 26 27 31 31 29 30 26 22 16 20 21 24 24 27 29 29 29 28 27 28 27 27 25 22 24 25 28 29 31 33 33
46 45 41 45 45 45 44 41 37 34 28 25 20 16 17 12 18 20 24 24 29 29 28 27 24 28 28 29 25 23 18 17 23 24 27 29 28 28 29 29 28 28 28 28 28 29 29 28 28 27 28 29 29 30
44 34 42 42 44 44 43 35 30 20 19 13 16 17 15 14 17 20 22 25 30 26 22 26 24 25 30 21 22 24 22 26 26 27 28 29 28 27 27 29 29 28 27 27 26 27 26 26 25 27 26 26 28 28
36 37 41 42 40 37 33 32 24 16 9 10 12 13 17 17 18 20 23 26 26 24 24 24 25 24 25 23 25 26 27 29 30 30 30 30 28 27 29 27 27 27 25 23 23 22 23 25 26 26 25 26 27 27
37 35 42 43 36 28 21 25 27 14 14 13 16 16 19 22 22 22 24 26 28 28 26 25 22 20 22 26 25 28 28 28 28 28 29 30 30 29 28 28 27 26 25 24 27 27 27 27 27 27 27 29 28 27
40 42 43 43 37 19 15 14 24 14 15 16 20 15 20 20 20 21 22 24 25 25 22 18 20 23 23 25 28 29 29 30 29 27 27 29 30 30 30 30 30 29 29 29 30 32 29 28 29 30 30 30 28 27
38 37 38 32 24 20 13 6 9 16 18 20 23 20 17 19 18 19 20 24 19 15 14 20 22 24 27 28 31 31 30 30 28 28 27 27 29 30 30 30 31 31 30 29 28 28 28 27 29 29 29 28 29 29
33 36 26 25 15 9 8 14 14 15 11 12 17 17 13 12 14 18 20 16 17 19 21 21 23 24 25 25 27 29 29 29 29 29 30 30 27 27 27 28 29 27 28 28 27 27 27 28 29 29 28 28 28 26
32 23 9 7 10 5 7 8 7 3 7 12 14 13 12 12 15 22 15 18 20 22 22 24 25 26 25 26 27 27 28 27 26 26 26 26 26 27 26 26 28 27 25 25 28 28 27 30 29 26 26 25 24 22
26 9 6 4 -1 3 -2 -1 -1 3 5 12 12 11 12 12 17 13 13 17 20 21 20 20 24 24 25 25 23 24 26 27 26 26 27 26 24 23 24 24 25 25 25 26 26 25 26 26 27 24 22 20 19 19
15 8 4 -2 -7 0 -5 -4 -5 3 7 13 13 11 12 14 11 11 12 14 17 18 18 19 23 22 22 22 23 23 25 26 24 23 23 26 25 25 23 23 22 22 24 24 23 22 21 21 21 19 19 18 15 14
3 3 4 4 -3 2 -0 -1 -3 5 10 13 14 16 15 12 7 6 11 13 15 17 16 16 18 21 20 22 21 21 21 25 25 22 21 23 24 24 22 22 21 20 21 23 23 20 18 18 17 16 16 19 22 12
0 1 8 19 15 12 8 10 12 9 4 6 12 13 14 6 4 11 17 16 15 18 18 19 20 21 21 21 22 22 22 22 22 21 21 21 21 22 24 23 21 20 21 20 21 20 18 16 14 13 10 8 7 6
1 3 2 2 2 2 -1 -1 3 5 8 12 12 6 6 8 8 12 15 17 17 17 19 21 21 21 21 21 22 22 21 22 22 23 24 23 21 20 23 24 24 26 20 19 18 17 16 14 12 10 9 7 4 4
3 9 8 -2 -5 -3 -2 1 5 12 15 12 7 7 8 12 13 13 15 16 17 18 17 18 19 21 21 21 20 20 21 22 20 19 18 18 19 18 17 20 20 21 21 22 25 17 12 12 11 9 5 6 2 -1
2 6 1 -8 -4 -2 1 5 5 8 14 15 15 14 13 13 15 16 14 14 14 15 16 17 17 18 17 18 18 19 19 18 21 22 20 18 17 15 15 17 16 15 17 20 20 19 22 9 10 2 5 4 3 2
5 2 -2 -2 -2 -0 1 5 6 14 10 6 7 8 9 11 14 14 13 12 12 14 14 13 14 15 15 16 16 18 18 17 18 20 19 17 15 14 13 11 11 12 11 11 9 9 8 4 3 3 3 1 2 -0
-0 -8 -4 -2 -1 1 1 -0 -3 -1 2 4 3 5 7 7 3 7 11 8 8 8 14 12 12 13 16 16 17 18 22 16 17 18 17 16 14 12 12 10 10 11 10 7 6 6 6 5 3 2 0 -5 -7 -7
-11 -11 -11 -8 -5 -4 -3 -4 -4 -5 -3 -4 -0 1 -1 3 3 6 8 6 7 9 9 11 13 15 15 15 15 17 19 16 21 26 25 23 21 17 11 8 8 10 10 8 5 5 4 1 -1 -5 -5 -7 -7 -7

GFSWCAN_sfc_temp_189.txt.gz
Temp
50 50 50 50 50 50 50 51 51 51 51 51 51 50 50 50 50 41 39 38 36 32 30 34 34 29 29 28 22 27 26 26 27 20 23 24 21 24 23 27 25 26 22 22 25 22 22 39 35 33 38 38 40 39
50 50 50 50 50 50 50 50 51 50 50 50 50 51 51 51 50 43 33 39 39 35 32 36 37 40 38 36 30 28 27 28 30 29 25 26 25 23 22 19 29 24 32 25 28 28 37 36 37 41 40 42 42 40
49 49 49 49 49 49 49 50 50 50 50 50 50 49 51 51 51 45 34 36 39 35 31 29 32 38 39 40 41 27 28 33 30 32 25 25 19 23 19 26 27 30 33 30 30 36 40 44 48 43 44 43 45 42
48 48 49 49 49 49 49 50 50 50 50 49 50 50 50 49 50 48 35 36 35 34 26 27 36 31 38 38 37 40 37 35 33 31 24 22 20 29 22 28 28 33 34 30 30 34 37 41 43 45 46 47 40 42
48 48 48 48 49 49 49 49 49 49 49 49 49 49 50 49 48 42 36 36 37 31 23 25 32 38 39 37 36 36 35 33 31 28 27 25 28 29 29 28 26 33 32 29 30 39 37 41 41 41 41 41 41 41
48 48 48 48 49 49 49 49 49 48 49 48 48 49 49 49 47 37 30 34 37 36 29 17 29 30 32 32 32 33 32 32 31 29 28 30 35 32 25 23 35 39 40 41 38 44 43 43 41 41 44 43 42 42
47 47 48 48 48 48 48 48 48 48 48 48 48 48 48 49 38 33 29 35 40 40 29 17 21 30 31 31 32 29 31 30 31 30 28 30 32 34 27 23 35 38 42 42 44 43 39 41 40 43 42 43 44 41
47 47 47 47 48 48 48 48 48 47 47 48 48 48 48 48 43 37 40 45 42 34 31 22 18 21 31 21 21 30 31 29 30 30 30 29 32 30 24 33 38 40 41 40 39 40 43 41 40 40 38 39 39 40
47 47 47 47 47 47 48 46 46 46 46 46 47 47 40 36 33 32 45 46 37 31 18 20 13 11 29 25 29 32 33 28 33 27 28 32 27 24 30 34 38 41 41 41 44 45 39 39 39 37 37 37 38 39
46 46 46 47 47 47 46 47 47 47 47 46 37 32 29 32 42 41 33 24 31 27 30 21 22 18 25 25 23 25 28 27 22 30 33 28 29 37 39 40 43 43 42 42 36 33 33 35 36 35 36 37 40 40
46 46 46 47 46 46 46 47 48 47 44 33 31 28 32 41 31 21 12 21 13 17 24 26 27 23 30 23 23 28 24 28 22 27 28 28 27 36 42 42 43 41 39 40 42 43 41 39 35 35 35 37 38 38
46 46 46 46 46 46 46 47 47 38 36 34 32 34 32 26 20 14 11 13 19 19 28 27 27 28 28 32 28 29 25 27 20 31 28 24 31 31 30 35 42 43 39 38 38 37 37 36 35 35 35 35 36 37
46 46 46 46 46 45 47 47 47 46 42 36 31 23 19 16 11 8 -3 5 10 24 27 27 24 29 30 30 27 27 24 24 29 26 22 26 30 29 28 29 30 32 34 34 33 34 34 33 34 33 33 34 34 35
46 46 46 46 46 46 46 47 46 42 36 28 23 16 14 1 13 11 12 16 23 23 27 27 26 26 31 27 27 25 27 27 23 20 20 22 24 26 28 29 30 29 31 31 31 32 32 31 31 31 32 32 33 33
46 46 46 45 46 46 45 45 42 37 32 25 21 12 9 14 8 15 19 25 27 27 25 24 25 25 27 28 27 27 22 17 21 22 22 23 26 26 27 28 27 27 27 27 28 27 24 26 27 28 29 30 32 32
46 45 40 46 46 45 45 42 37 35 29 23 18 11 14 15 12 13 17 21 25 25 28 26 22 21 26 28 26 23 19 19 24 24 26 28 29 27 27 28 27 27 27 28 28 28 28 28 27 26 26 27 28 29
45 33 42 42 43 43 43 34 32 25 22 16 17 16 14 12 12 13 16 20 26 24 20 23 20 23 26 26 22 25 21 25 27 28 28 29 29 28 28 28 28 28 26 26 26 26 26 26 25 26 25 24 27 27
35 36 41 40 40 37 33 32 27 19 12 8 11 12 16 15 14 14 16 19 25 23 23 21 24 18 22 20 22 24 25 29 29 29 29 29 28 28 30 27 26 25 24 23 23 22 23 24 25 25 25 26 26 27
39 38 39 42 37 29 22 25 27 14 12 10 14 14 16 19 20 18 20 24 26 27 25 22 20 20 21 24 23 23 24 28 27 28 29 29 29 28 28 27 25 25 24 24 26 26 26 26 26 27 27 28 27 27
43 42 43 42 37 18 13 12 22 17 9 15 18 15 19 18 18 18 20 22 22 24 21 19 19 22 21 23 25 25 28 30 29 27 27 29 30 30 29 29 28 28 28 28 29 30 28 27 29 29 29 28 26 26
36 36 38 34 22 21 16 11 17 14 16 17 19 20 18 19 17 16 16 20 17 17 16 19 20 23 26 26 27 29 29 29 28 28 27 27 29 30 29 30 30 30 28 28 27 27 27 26 27 28 28 28 28 29
32 37 27 26 20 15 11 15 11 12 12 12 16 20 13 11 12 14 17 12 13 16 18 20 21 23 24 25 26 27 28 28 28 29 29 30 27 27 27 28 28 27 27 27 28 27 27 28 29 29 28 27 28 26
31 26 15 7 13 6 7 6 6 1 6 6 11 12 11 11 13 17 12 14 16 20 21 21 22 25 25 26 26 26 27 27 26 26 26 26 26 26 26 26 27 26 25 25 27 27 27 29 28 25 25 24 23 21
24 16 7 3 -2 3 -2 -2 -2 -0 -2 5 8 9 10 11 14 10 11 14 19 21 19 19 22 23 24 24 23 23 25 27 25 25 26 26 24 23 24 24 24 25 25 26 25 24 25 25 25 23 22 20 19 19
16 8 4 0 -7 0 -4 -4 -7 -1 -0 7 8 9 11 12 9 9 11 12 16 17 17 18 19 22 20 22 22 23 24 25 24 22 23 26 25 25 23 23 22 22 24 23 22 21 21 21 20 19 18 17 16 14
7 2 3 -1 -4 2 -1 -1 -5 -2 6 8 10 12 12 11 6 5 11 12 14 16 15 16 16 19 21 21 20 20 20 23 26 22 21 23 24 24 23 23 22 21 22 23 22 20 19 19 19 19 19 20 22 12
0 -0 6 18 14 10 7 9 11 7 3 4 8 9 9 5 4 10 15 15 15 17 18 18 19 20 20 21 22 22 22 22 21 20 21 21 22 23 24 23 19 20 22 22 22 22 19 17 15 13 11 10 10 11
0 2 2 0 -0 1 -1 -1 -1 3 7 12 12 7 8 7 8 12 14 16 16 17 18 21 21 21 21 21 22 22 22 22 22 23 25 23 22 21 24 24 24 26 21 20 19 18 17 16 14 13 11 9 6 7
3 8 7 -4 -5 -5 -4 -1 2 12 15 12 8 7 7 12 12 12 15 15 16 17 17 17 19 21 22 22 21 20 21 22 22 21 20 19 20 18 19 21 21 21 22 22 25 17 13 13 12 10 8 7 5 3
2 5 -0 -9 -4 -2 -1 3 3 8 13 14 15 13 13 14 14 16 14 13 13 14 15 16 16 17 18 19 19 20 19 19 22 22 21 19 18 17 18 19 18 19 22 21 19 18 21 10 11 4 6 5 3 2
6 0 -3 -3 -3 -2 -1 3 3 13 10 8 10 10 11 12 14 14 12 12 12 14 13 12 13 15 15 16 16 18 19 19 20 20 20 18 17 17 16 15 15 15 14 13 12 10 8 6 4 3 2 -0 2 -1
-1 -7 -3 -3 -2 -1 -2 -1 -2 2 4 5 4 7 9 10 8 10 12 10 10 9 13 11 11 13 16 17 18 19 21 18 18 19 18 17 15 15 15 14 14 13 12 10 9 7 6 4 3 2 2 -3 -8 -8
-12 -12 -12 -8 -4 -3 -4 -4 -5 -6 -2 -2 -0 2 0 3 4 7 7 6 6 7 9 11 13 14 15 16 15 18 20 19 23 26 25 24 22 19 14 14 14 12 11 8 5 4 2 -0 -2 -6 -6 -7 -8 -7

GFSWCAN_sfc_temp_192.txt.gz
Temp
50 50 50 50 50 50 50 50 50 50 51 50 50 50 51 50 49 41 38 38 35 27 29 32 33 28 28 28 22 26 25 25 26 20 23 23 20 22 20 24 24 25 21 20 26 23 19 37 34 31 36 35 36 43
50 50 50 50 50 50 50 50 50 50 50 50 50 50 50 51 50 43 32 37 38 34 30 34 36 38 37 35 29 28 26 26 28 26 24 26 25 20 20 16 26 23 29 23 26 26 35 33 36 40 38 37 40 37
49 49 49 50 49 49 49 49 49 50 49 50 50 50 49 49 50 44 34 34 38 34 32 30 30 37 37 37 40 27 27 31 29 30 24 22 18 24 18 22 23 27 31 29 28 34 39 43 47 44 39 39 43 42
48 48 49 49 49 49 48 49 49 49 49 50 50 50 50 50 49 46 37 36 33 32 25 26 34 31 36 35 35 38 36 32 31 28 21 19 20 26 18 24 25 31 28 27 28 33 36 39 41 41 42 41 39 40
48 48 48 48 48 48 49 49 49 49 49 49 49 49 49 49 49 41 39 38 38 32 22 25 31 37 37 34 33 33 34 32 26 25 25 23 27 25 26 24 24 31 30 27 27 37 34 39 39 39 38 39 44 39
48 48 48 48 48 48 49 49 49 49 48 48 48 48 49 49 43 35 29 34 37 36 29 19 29 29 30 30 30 30 31 30 30 28 26 28 31 27 22 21 32 35 36 38 35 41 41 42 44 44 40 44 45 41
47 48 48 47 48 48 48 48 48 48 48 48 48 48 48 47 36 33 29 34 39 37 28 21 20 29 31 29 28 27 29 28 28 29 27 28 28 31 25 20 32 36 36 38 40 39 36 39 38 39 39 40 41 40
47 47 47 47 47 47 48 48 48 47 47 47 48 48 48 48 42 35 39 45 41 34 32 22 17 21 30 20 18 28 24 24 28 26 27 27 29 28 21 30 35 36 37 38 39 41 41 44 38 37 37 37 37 37
46 46 47 47 47 47 47 47 47 46 46 46 46 46 39 36 34 32 44 43 39 33 20 19 14 11 28 23 23 22 30 24 29 24 27 29 26 22 28 31 34 37 37 38 40 40 41 34 38 37 35 35 35 36
46 46 46 46 46 47 47 46 46 48 46 45 37 32 29 32 42 40 32 23 31 31 25 22 21 16 25 24 21 20 21 20 21 27 30 26 25 34 37 39 40 40 39 40 35 33 34 34 38 37 36 36 36 37
45 46 46 46 46 46 46 46 47 46 44 33 30 25 31 40 30 20 11 21 14 15 23 27 24 23 31 21 22 28 18 20 16 24 25 23 27 36 39 38 41 42 40 40 41 42 41 39 39 38 34 35 36 37
45 46 46 46 46 46 46 46 47 38 35 35 31 33 30 22 15 12 5 11 17 17 25 25 26 28 28 29 24 26 22 25 16 26 27 24 31 33 31 31 31 33 40 39 37 40 40 38 38 36 35 34 36 38
46 46 46 46 46 46 46 46 47 45 42 37 32 25 21 12 8 6 -2 6 4 16 17 16 19 26 28 29 26 25 22 20 27 24 24 27 30 30 28 28 29 30 36 36 35 36 36 33 34 34 33 34 35 35
45 46 46 46 46 46 46 46 45 41 35 27 23 13 8 3 10 11 12 14 20 20 20 24 22 23 26 24 23 22 26 27 23 20 22 26 26 27 28 29 29 28 31 31 33 33 33 32 31 32 33 33 34 33
46 46 46 45 46 46 46 45 44 37 32 24 18 9 8 14 6 9 12 17 24 23 21 20 20 22 23 23 26 25 22 21 22 22 24 28 27 26 27 27 27 28 28 29 30 29 28 27 29 29 30 32 32 32
45 44 39 45 46 45 45 42 37 36 31 24 16 15 14 9 8 7 11 21 24 22 24 23 18 17 20 25 24 23 21 19 22 25 29 29 29 28 26 26 27 27 27 28 29 29 29 29 28 26 27 28 28 29
44 30 42 42 43 42 42 34 33 25 19 15 16 19 14 11 12 12 13 17 19 20 15 16 13 19 23 22 23 24 20 22 25 26 30 29 28 27 27 28 28 28 25 25 27 27 26 26 27 27 25 24 27 27
33 35 42 43 41 37 33 31 27 22 15 8 10 12 15 13 11 9 13 13 19 19 20 18 21 15 18 17 20 23 23 25 26 28 28 29 28 28 28 27 26 25 24 23 24 24 25 26 25 25 25 26 27 27
35 36 41 41 37 30 22 24 26 19 15 11 14 13 14 17 16 13 16 18 24 26 25 17 16 15 21 23 21 21 23 24 23 28 29 29 28 28 27 27 25 24 24 25 27 26 26 26 26 26 26 28 26 28
44 42 42 41 37 20 12 12 20 21 12 13 17 14 18 15 13 13 18 21 21 22 18 15 18 21 20 22 24 24 25 26 28 27 27 28 29 29 28 27 27 27 27 28 28 30 28 28 28 28 28 28 28 27
37 36 37 34 23 18 12 8 18 13 13 14 15 18 15 13 14 17 19 20 13 10 10 16 18 21 25 24 26 26 26 28 28 28 27 27 29 29 28 28 28 28 27 26 26 26 26 25 26 27 27 26 27 28
33 36 28 27 18 17 13 14 11 11 8 6 12 16 17 11 12 14 16 9 7 14 16 17 19 21 21 23 25 26 26 27 28 28 29 29 26 26 27 27 27 26 26 26 27 26 26 28 28 28 27 26 27 25
31 27 19 19 20 9 7 5 5 0 4 4 8 10 13 12 14 18 9 10 15 17 20 20 20 21 22 25 25 25 26 26 25 25 26 25 25 26 25 26 27 26 24 24 26 26 25 27 27 25 25 24 23 21
26 16 16 12 6 4 -3 -3 -4 -2 -4 2 4 7 10 10 14 10 5 10 17 20 19 18 19 21 24 24 22 23 23 26 25 24 25 25 23 22 24 24 24 24 24 24 23 23 25 25 25 22 22 20 19 19
21 13 10 2 -8 -0 -3 -5 -8 -2 -3 -2 4 8 10 13 8 5 7 12 14 17 17 18 18 20 20 20 22 22 24 23 23 22 22 26 24 24 23 22 22 22 25 23 21 21 20 21 20 19 18 17 15 15
12 5 3 1 -4 2 0 -2 -5 -3 -1 3 8 10 11 8 5 5 11 12 14 16 15 15 16 17 19 21 19 19 20 22 24 22 21 22 24 25 23 22 21 20 22 23 23 20 19 20 19 18 18 20 21 12
6 2 3 17 13 9 6 7 9 4 1 2 8 9 9 4 4 10 15 15 14 16 17 17 19 19 19 20 22 22 22 22 21 20 21 22 23 22 24 22 19 19 22 22 22 21 18 17 15 14 13 11 11 12
0 1 2 -1 -1 1 -3 -3 -4 -1 6 11 11 6 6 6 8 11 14 16 16 16 17 20 21 21 21 21 21 22 23 24 23 23 25 24 21 22 24 24 24 26 21 20 19 19 18 16 14 13 11 10 8 8
2 8 6 -5 -6 -5 -5 -1 0 10 14 11 8 9 8 12 12 12 14 15 16 16 16 16 18 19 21 22 21 20 21 22 23 21 19 19 19 17 20 21 22 22 22 22 25 17 14 14 12 10 9 8 6 7
4 5 -1 -9 -4 -2 -2 2 -0 5 12 14 15 13 13 14 14 15 14 13 12 13 15 15 16 16 17 18 20 20 20 20 22 23 21 19 17 17 19 20 21 22 23 22 20 19 22 14 15 10 10 8 7 6
6 0 -3 -3 -3 -4 -3 1 2 12 9 8 11 11 12 13 14 14 12 12 12 13 14 12 13 15 15 15 16 18 18 19 21 20 20 19 18 18 17 17 17 17 16 15 14 13 11 9 8 7 5 4 6 2
0 -7 -3 -3 -3 -3 -4 -5 -3 -0 3 8 6 8 10 11 10 11 11 10 10 10 13 12 11 12 15 17 18 20 22 19 19 19 19 18 16 16 16 16 16 16 15 13 12 11 10 8 7 6 3 0 -2 -2
-12 -12 -12 -8 -5 -4 -5 -5 -5 -7 -3 -3 0 4 3 5 6 7 10 9 8 8 9 11 12 14 15 15 17 20 21 20 24 26 25 24 23 20 16 16 15 15 13 11 9 9 7 5 3 2 0 -2 -6 -7

GFSWCAN_sfc_temp_195.txt.gz
Temp
51 50 50 50 50 50 50 50 50 50 50 50 50 50 50 49 50 40 35 36 32 26 28 31 32 27 27 26 21 26 25 25 26 20 23 22 20 21 18 22 22 21 20 21 24 21 18 36 35 32 37 36 36 38
50 50 50 50 50 50 50 50 50 50 50 50 50 50 50 49 49 43 32 36 37 34 29 32 34 34 36 34 28 26 25 25 28 20 25 25 24 22 19 16 24 21 25 22 24 25 33 33 35 40 39 38 37 38
50 50 50 50 50 49 50 50 50 49 49 49 49 50 50 49 49 44 35 37 38 33 31 30 29 32 34 36 37 27 26 30 28 28 23 21 14 21 14 18 22 27 29 25 27 30 33 36 40 40 37 37 40 39
49 49 49 49 49 49 48 48 48 49 49 49 50 50 50 50 49 43 38 38 34 31 20 25 33 30 34 34 34 36 35 31 29 27 20 18 16 25 16 22 23 29 27 28 29 33 32 38 39 41 42 41 38 38
48 48 48 48 48 48 48 48 48 49 49 49 49 48 49 49 48 40 36 38 39 32 25 25 30 36 34 33 32 32 31 30 23 24 20 20 25 24 24 22 22 29 28 25 25 34 34 37 42 40 38 40 39 38
48 47 48 48 48 47 48 48 48 48 48 48 48 48 48 48 44 34 29 33 37 37 30 23 29 28 28 28 29 28 30 28 26 25 23 27 29 24 16 20 30 33 34 36 32 38 39 40 42 42 40 41 42 41
47 47 47 47 47 47 48 48 48 48 48 48 48 48 48 47 36 30 29 35 38 37 29 21 20 29 30 29 27 26 27 27 28 28 26 26 26 29 23 19 30 34 35 36 38 38 34 37 36 40 37 40 40 38
47 47 47 47 47 47 47 48 48 47 47 47 47 48 48 47 41 35 37 43 39 34 31 22 17 20 29 18 19 27 23 27 28 27 25 25 26 27 19 28 31 34 35 36 37 39 38 40 40 39 38 37 35 36
46 47 47 47 47 47 47 47 46 46 47 46 46 46 37 36 34 32 43 41 37 32 25 17 13 10 27 23 25 23 25 19 25 21 25 26 23 19 27 30 32 35 34 34 38 38 37 36 37 38 37 34 33 37
46 46 46 46 46 46 46 46 46 46 46 45 36 31 24 31 42 39 31 24 29 31 28 21 21 14 24 26 22 24 20 21 11 23 26 22 23 32 35 37 38 38 39 37 33 32 33 33 35 37 38 38 39 40
46 46 46 46 46 46 46 46 46 45 43 31 24 24 31 39 29 18 9 21 15 13 22 26 20 20 28 18 21 26 21 20 17 22 22 22 25 33 36 36 38 37 37 39 40 40 37 37 36 36 35 35 35 35
45 45 45 46 46 46 46 46 46 36 32 33 29 32 29 21 12 10 2 10 14 16 21 22 22 23 25 29 24 24 20 22 15 26 24 22 28 30 30 30 31 32 29 30 36 39 36 36 37 37 37 34 34 35
45 45 45 46 46 45 46 46 46 44 40 36 31 23 20 10 6 4 1 6 5 14 18 15 17 22 23 27 24 23 20 19 29 23 23 25 28 30 29 29 29 31 30 30 33 35 37 36 37 35 34 34 33 34
45 45 46 46 46 45 45 46 45 41 32 28 17 9 9 -3 8 9 11 12 18 19 18 17 20 17 21 20 23 20 24 24 21 21 21 26 27 29 29 29 28 29 30 30 33 34 34 33 33 32 33 34 33 33
45 45 46 45 46 46 46 45 44 37 32 24 21 10 8 13 6 7 8 11 19 21 18 19 19 22 19 20 23 23 21 20 21 19 23 26 27 29 29 28 27 27 28 29 30 30 29 29 29 29 30 31 33 32
45 44 38 45 45 45 44 42 36 35 30 21 13 12 14 8 7 6 5 11 20 19 23 23 21 16 19 22 20 22 20 16 20 23 25 27 28 29 28 28 27 27 27 28 29 30 30 30 28 26 27 29 30 31
44 35 43 43 43 44 43 35 33 27 21 13 16 21 16 13 11 11 10 12 17 18 13 12 14 13 17 16 21 21 17 20 23 24 27 28 28 28 28 28 27 28 25 27 27 27 27 27 27 28 25 26 28 28
33 34 43 43 40 37 33 32 27 21 17 11 11 14 17 12 9 7 8 8 17 16 14 15 17 13 13 11 17 20 22 24 25 25 26 28 29 28 28 27 26 26 24 24 25 26 26 26 26 26 26 27 28 27
34 35 41 42 37 30 19 20 22 14 10 10 12 11 13 16 14 10 10 11 18 24 24 14 15 13 17 20 19 20 22 23 22 24 26 29 29 28 27 27 26 25 24 24 26 26 26 27 27 28 28 29 26 28
44 43 42 41 37 19 11 13 18 19 15 11 13 12 15 15 15 15 15 18 20 21 15 15 17 20 19 20 22 22 23 25 24 23 27 28 29 28 27 27 27 27 26 27 28 30 28 28 29 29 29 29 26 25
36 35 35 32 22 16 11 11 18 19 12 10 12 16 15 16 14 12 13 20 16 13 11 15 17 21 23 23 23 24 25 25 24 25 26 26 28 28 27 27 27 27 26 26 25 26 26 25 26 27 28 26 26 26
33 36 25 28 17 14 12 12 8 11 8 4 8 12 11 14 13 12 15 10 9 11 17 16 19 19 20 20 21 24 25 25 27 27 28 28 25 26 26 27 26 25 25 25 25 25 25 25 26 26 26 25 26 25
32 27 17 16 15 10 7 5 6 -1 3 1 1 6 12 13 13 16 9 10 13 17 19 19 19 20 20 23 25 25 24 24 24 24 25 24 25 25 25 25 26 24 23 23 25 25 24 26 26 25 25 24 23 22
26 11 6 5 6 6 -2 -3 -4 -3 -5 -2 -2 2 8 11 12 9 8 12 16 19 18 17 18 19 22 22 22 22 23 23 24 24 24 24 22 21 23 23 23 23 24 23 23 23 23 23 24 23 22 21 20 19
15 9 7 2 -8 0 -2 -5 -8 -3 -3 -7 -0 1 9 11 8 6 6 9 12 15 17 17 17 18 18 19 20 21 23 21 21 21 22 25 24 23 22 21 21 21 24 22 21 21 21 21 20 19 18 18 16 15
7 6 3 -0 -4 2 1 -2 -6 -4 -4 -5 5 11 10 7 5 5 9 11 13 15 15 15 14 16 18 20 19 19 20 22 22 21 20 22 23 24 22 21 20 19 22 24 23 20 20 20 19 19 19 20 21 13
8 3 2 16 12 8 5 6 8 3 -3 -1 5 8 8 4 4 9 14 15 14 16 16 17 16 18 18 19 21 23 23 22 20 20 21 22 23 22 24 21 18 19 23 23 22 21 18 17 16 14 13 12 11 12
6 5 4 -1 -2 -1 -4 -4 -4 -4 2 10 10 5 5 6 8 11 14 16 15 16 16 18 20 20 20 21 21 21 23 24 24 23 24 23 21 22 24 23 24 26 21 21 20 19 18 17 15 13 12 10 8 8
2 7 5 -6 -7 -6 -5 -2 -1 6 12 8 6 8 9 11 12 12 14 15 15 15 15 15 17 18 20 22 21 21 21 22 23 20 19 18 18 17 20 21 21 22 22 22 25 18 15 15 13 11 10 8 7 9
1 5 2 -8 -4 -2 -2 0 -2 -0 8 13 15 13 12 13 14 15 14 13 12 12 14 15 16 15 15 16 18 20 21 21 23 22 21 18 16 17 20 21 21 22 23 22 21 20 22 17 17 12 11 10 9 8
6 -0 -3 -3 -3 -4 -5 -1 -1 10 6 5 10 10 12 13 15 14 12 12 13 13 14 12 13 15 14 14 15 16 18 20 21 20 20 19 19 18 17 17 17 18 18 17 16 15 14 12 11 9 7 7 9 4
2 -5 -3 -3 -3 -3 -5 -6 -7 -4 -1 4 7 9 11 11 10 11 12 11 11 11 13 12 11 12 15 16 18 20 22 19 20 20 19 18 17 17 17 17 17 17 16 15 14 13 11 10 9 7 5 3 2 1
-11 -11 -12 -9 -5 -4 -5 -5 -4 -5 -3 -1 1 3 4 6 8 10 12 10 9 9 10 11 12 14 15 17 18 21 22 21 24 26 26 24 23 20 17 16 16 16 14 13 12 11 9 8 7 5 3 1 -1 -2

GFSWCAN_sfc_temp_198.txt.gz
Temp
51 51 51 51 51 51 51 51 51 51 51 50 50 50 50 50 49 46 42 42 40 35 38 37 38 35 34 35 30 34 33 32 33 27 28 29 28 31 27 33 31 30 27 27 29 24 21 47 43 37 42 46 47 48
51 51 51 50 50 50 51 51 50 50 50 50 50 50 50 49 49 45 40 42 43 38 37 39 40 43 42 42 37 35 34 32 36 30 30 30 27 28 26 23 33 26 35 33 34 35 43 43 42 46 46 44 46 46
51 51 51 50 50 50 50 50 50 50 49 49 49 50 50 50 49 46 40 41 41 35 36 35 37 41 41 41 46 33 35 38 36 39 34 31 24 31 24 26 29 35 37 33 35 41 43 45 46 47 49 48 49 50
50 50 50 49 49 49 49 49 49 49 49 49 49 49 49 49 48 45 40 41 39 35 28 34 40 37 43 42 41 43 42 39 38 37 31 28 25 34 28 31 30 35 38 34 34 38 41 43 46 48 49 49 47 50
49 49 49 49 49 49 49 49 49 49 49 48 48 48 48 48 48 44 42 42 43 36 29 32 39 44 43 40 38 39 38 36 34 29 26 25 32 31 32 31 28 36 32 29 28 39 40 41 46 48 46 45 46 47
48 48 48 48 48 48 48 49 49 48 48 48 48 48 48 47 44 41 35 39 41 40 31 26 38 36 37 36 35 35 35 35 33 29 28 31 36 31 24 24 34 38 40 41 36 43 43 45 46 47 45 45 47 46
48 48 48 48 48 48 48 48 48 48 48 48 48 48 48 47 41 37 35 40 41 41 30 25 28 36 34 35 34 33 34 33 32 30 28 31 32 32 25 21 32 37 41 41 43 42 38 41 40 45 45 46 46 46
47 47 47 47 48 47 48 48 48 47 47 47 47 47 47 47 43 39 41 43 42 35 32 23 25 28 34 30 30 34 30 29 30 30 32 30 32 30 20 30 35 37 39 39 40 43 42 43 44 44 45 45 42 42
47 47 47 47 47 47 47 47 46 46 47 46 46 46 42 40 35 38 43 42 40 36 27 25 21 21 33 31 31 30 29 21 31 24 27 30 26 21 29 33 36 38 37 37 40 41 41 39 40 42 42 42 41 42
46 47 47 47 47 47 46 46 46 46 45 44 40 36 30 35 41 41 35 31 31 31 31 25 28 22 31 31 28 26 28 24 20 27 32 23 24 33 36 37 37 37 40 41 37 35 37 37 39 40 41 42 43 43
46 46 46 47 46 46 46 46 46 45 42 36 30 29 36 39 35 26 21 22 21 21 27 29 27 24 34 24 25 29 24 25 18 25 22 22 24 29 32 32 33 33 35 35 38 41 41 42 41 41 41 42 43 44
46 46 46 46 46 46 46 46 46 39 36 36 34 35 34 27 21 19 14 17 18 20 28 25 27 28 29 32 25 27 21 23 16 29 22 22 27 30 29 29 32 32 32 33 35 35 37 40 43 43 43 42 42 43
45 45 46 46 45 45 46 46 45 44 41 37 32 24 24 18 12 13 9 14 16 22 25 26 24 28 28 28 25 25 19 19 31 23 22 25 29 29 28 29 31 32 31 32 35 35 36 40 43 42 41 41 41 41
45 45 45 45 45 45 45 46 46 42 36 27 23 13 17 11 15 17 19 21 26 24 26 26 23 24 27 23 26 18 25 26 21 20 20 26 26 27 28 30 29 29 29 31 32 37 38 36 36 36 37 39 39 39
45 45 45 45 45 45 46 45 44 39 33 24 21 13 13 21 17 18 17 19 25 27 26 24 24 25 23 21 23 23 21 20 20 19 23 27 29 29 29 30 30 29 28 29 33 32 32 33 32 33 35 37 39 38
45 44 40 44 45 45 44 41 37 35 30 26 21 16 19 17 18 17 16 19 26 27 27 25 22 19 19 22 20 18 20 16 20 23 26 28 27 28 29 30 29 29 28 29 30 31 33 32 32 31 32 33 34 35
43 35 43 44 44 43 42 35 33 29 25 20 19 23 21 20 20 21 20 22 24 25 21 19 16 17 21 18 19 24 18 20 23 25 27 28 26 27 29 29 29 28 28 28 28 28 29 30 31 30 28 29 30 31
35 37 44 43 40 37 34 32 30 25 19 17 19 21 21 22 20 19 19 19 24 23 20 18 21 17 17 14 20 21 22 24 26 26 26 27 27 29 30 28 28 27 27 27 27 28 28 28 28 27 28 29 30 30
36 36 42 43 38 30 24 24 25 18 16 17 18 18 19 21 21 20 20 20 22 25 25 22 18 16 19 22 20 21 22 23 22 24 26 28 30 29 28 28 27 27 26 27 27 27 28 29 29 29 29 30 29 30
44 42 43 41 37 24 16 16 21 18 16 17 17 16 19 21 21 19 19 21 24 24 20 18 19 22 20 22 23 22 23 24 23 22 25 28 30 29 28 28 28 28 28 29 29 30 29 28 29 29 30 30 28 27
37 36 36 32 24 19 15 16 19 20 18 15 15 16 18 20 19 18 19 22 21 19 16 20 20 21 24 24 24 23 23 24 23 23 24 25 29 29 28 28 28 28 27 26 26 26 26 25 26 27 28 27 27 26
33 35 28 28 21 16 12 13 13 15 13 11 11 11 13 16 16 17 18 17 16 16 18 19 20 20 20 20 21 23 24 25 25 26 28 27 26 26 27 27 27 25 25 25 25 24 24 25 26 25 24 24 25 24
32 28 19 16 15 12 9 8 10 5 8 8 6 8 12 16 17 19 15 15 16 20 21 20 19 20 19 22 24 25 25 23 23 24 25 25 25 25 25 25 26 24 23 24 26 25 24 26 25 24 25 25 24 23
26 17 8 9 9 8 4 0 2 4 3 5 2 4 10 16 17 14 13 13 17 20 20 18 19 18 21 22 21 22 23 22 23 24 24 24 22 22 23 23 23 23 24 24 24 24 24 23 24 23 23 22 22 21
22 13 8 4 -3 4 1 -1 -3 3 1 -3 -0 6 13 14 12 10 10 12 15 17 17 18 17 18 17 19 20 21 23 22 21 22 22 24 24 23 22 22 22 22 25 23 21 21 21 22 22 21 21 20 19 18
8 5 5 4 -1 5 4 1 -3 -0 -0 -3 3 12 12 11 9 9 11 13 14 15 16 15 14 15 17 20 19 20 21 22 23 21 20 22 23 24 22 21 20 20 23 24 24 22 22 23 22 21 21 22 22 16
5 3 5 15 12 9 6 7 9 4 -3 -1 6 8 9 6 8 11 14 15 14 16 17 17 16 16 17 19 22 23 24 23 21 20 21 22 23 22 23 21 19 20 24 24 23 22 20 19 18 17 16 15 16 17
3 3 4 0 0 2 -2 -2 -3 -2 2 9 11 4 5 7 10 11 13 16 16 16 16 18 20 20 19 21 22 22 23 25 25 24 24 23 22 23 24 25 25 26 22 22 21 21 20 19 17 16 15 13 12 13
5 9 7 -6 -6 -3 -3 1 2 8 12 9 8 9 10 13 12 12 15 15 15 15 15 15 17 18 20 21 23 23 22 24 23 20 19 18 19 18 22 23 23 23 23 23 25 19 17 17 16 14 13 12 12 12
0 6 2 -7 -2 -0 0 2 -1 1 8 13 14 14 13 13 14 16 14 13 12 12 14 15 16 15 15 16 17 21 21 23 23 23 20 18 17 19 21 22 22 23 24 23 22 22 24 19 19 15 14 13 13 11
6 2 -2 -2 -2 -3 -2 -1 -1 9 5 7 11 10 12 13 15 15 13 13 13 14 15 13 14 15 14 14 15 17 19 20 21 21 20 20 19 19 18 19 19 20 19 19 18 17 16 15 14 13 12 12 13 10
2 -5 -2 -2 -3 -3 -4 -6 -6 -4 -1 6 9 10 11 12 11 13 13 12 12 12 14 13 12 13 15 17 19 21 22 20 20 20 19 19 18 18 19 19 19 19 18 17 16 16 14 13 12 11 9 7 6 6
-9 -7 -8 -8 -6 -4 -5 -5 -4 -4 -2 -1 4 5 6 7 8 11 13 12 10 10 10 11 13 14 16 18 21 22 22 22 25 27 26 25 24 21 18 18 18 18 17 15 14 14 12 10 9 8 7 6 5 4

GFSWCAN_sfc_temp_204.txt.gz
Temp
52 52 52 52 52 52 53 52 52 51 51 51 50 50 50 50 49 46 40 44 39 34 35 38 39 33 33 31 25 31 29 28 28 21 24 25 24 27 25 29 28 25 23 21 24 20 19 41 39 34 36 40 41 40
52 52 52 52 53 53 53 52 51 51 51 50 50 50 50 49 48 48 38 44 44 36 34 41 41 43 41 40 33 32 30 30 30 22 25 25 24 26 23 18 32 23 28 26 30 29 39 43 39 42 43 41 40 39
51 51 51 50 51 51 51 50 51 51 50 50 50 50 50 49 49 47 40 41 40 34 34 34 34 41 44 42 43 29 32 37 32 34 27 25 17 25 16 19 22 29 35 28 29 32 36 42 44 43 43 42 43 44
49 50 51 51 51 51 51 51 50 50 50 50 50 50 49 49 49 47 40 41 39 34 25 31 43 36 43 43 41 41 38 38 36 32 24 20 18 28 19 24 23 28 30 27 27 33 35 40 42 43 45 42 41 41
50 50 50 50 50 50 50 50 50 50 50 49 49 48 48 48 48 44 42 43 42 34 27 29 38 40 42 40 39 39 37 33 27 21 19 19 27 26 26 27 23 31 28 25 24 34 34 36 40 42 40 41 41 39
50 50 50 50 50 50 50 49 49 49 49 48 48 48 48 48 47 40 34 40 43 41 27 21 35 33 35 35 36 34 34 32 29 23 22 27 31 26 19 18 30 34 36 37 32 38 38 40 42 42 39 40 42 41
49 49 49 49 49 49 49 49 49 48 48 48 48 48 47 47 41 35 33 38 42 39 27 20 24 31 32 32 32 31 33 30 29 26 23 27 28 29 22 18 29 33 35 37 38 38 34 37 36 41 41 42 43 43
49 49 49 49 49 49 49 48 48 48 47 47 47 47 48 46 43 36 40 43 42 33 31 16 20 25 32 25 22 32 26 25 24 24 26 26 27 26 19 27 32 35 37 36 36 37 36 37 38 39 41 41 39 39
48 48 48 48 48 48 48 48 47 47 47 47 47 47 41 38 33 35 43 43 40 33 21 22 18 15 30 27 27 25 25 16 27 21 23 27 23 19 27 31 32 33 31 30 33 32 32 31 32 34 36 38 36 37
47 48 48 47 48 48 47 47 47 46 46 46 41 35 31 35 42 41 34 31 28 31 29 21 26 19 27 26 22 22 23 20 14 25 29 22 23 32 34 31 31 30 31 30 27 26 29 30 32 33 34 37 39 38
47 47 47 47 47 47 47 46 46 45 44 36 30 28 35 40 36 28 17 17 21 14 25 26 25 20 30 19 19 25 17 21 14 21 21 20 22 26 30 30 30 30 30 30 30 30 31 31 31 32 34 36 39 39
46 46 46 46 46 46 46 46 45 39 35 36 34 37 34 29 20 14 10 17 17 18 25 20 20 23 24 29 20 24 20 22 11 24 20 17 24 29 29 29 29 29 29 29 30 30 31 31 31 33 35 37 38 38
46 46 46 46 46 46 46 46 45 44 42 37 28 20 19 15 8 6 1 9 11 19 20 19 17 20 22 25 19 21 15 16 28 19 19 22 27 28 28 29 28 29 29 29 29 30 30 31 34 34 36 37 37 37
46 46 46 46 46 46 46 46 44 41 36 23 15 8 11 6 11 16 16 18 22 23 22 21 18 18 21 17 20 13 21 22 15 16 17 21 25 26 29 29 27 26 27 28 27 28 30 31 34 35 37 36 37 36
46 45 45 45 45 45 46 46 44 38 30 18 17 7 9 19 18 17 16 19 23 24 21 18 18 21 18 15 18 19 16 14 19 17 20 24 26 27 27 27 26 26 28 27 28 28 30 30 27 30 32 34 36 36
45 44 41 45 45 45 44 42 37 35 30 26 24 16 21 15 14 16 15 16 24 23 24 20 13 11 13 15 17 15 15 15 18 21 24 26 27 26 26 26 27 28 28 27 27 28 30 30 30 31 30 31 31 32
44 35 43 45 44 43 43 35 33 29 27 24 17 25 22 20 16 19 19 20 25 21 12 13 8 11 15 11 12 20 17 19 21 23 26 26 24 24 25 26 27 28 27 27 27 28 28 30 30 29 28 29 30 30
36 39 44 43 40 38 34 32 29 27 16 18 20 19 24 20 18 19 18 19 18 16 15 10 15 9 8 7 13 19 19 22 24 24 24 25 25 25 27 26 28 28 27 27 26 27 28 28 28 28 29 29 30 30
37 39 43 43 38 32 24 24 25 15 16 23 19 19 19 20 21 19 19 19 19 22 20 15 9 8 14 16 15 18 19 20 20 22 23 25 26 26 26 27 27 27 27 27 27 27 28 28 28 29 29 29 28 28
43 43 43 42 38 27 18 18 23 22 11 15 17 14 16 17 21 21 22 23 19 19 15 13 16 17 15 15 17 18 20 22 21 19 21 24 25 26 26 27 27 28 27 27 27 28 27 27 28 28 28 28 27 26
38 36 37 35 28 25 22 16 18 22 20 14 19 14 13 23 21 21 21 25 22 17 14 16 15 14 18 16 18 21 21 22 20 20 20 20 25 26 25 27 27 27 26 26 24 24 24 23 25 26 26 25 26 26
34 38 31 31 26 23 16 15 13 15 12 11 9 10 6 9 13 18 15 13 11 11 13 14 13 13 17 17 19 20 21 22 23 23 25 25 22 23 23 24 25 24 24 24 24 23 23 24 25 24 24 23 24 23
34 30 21 26 20 13 8 12 8 7 5 5 5 3 4 9 15 17 11 12 13 16 18 17 13 14 17 19 21 22 23 22 21 21 21 23 23 23 23 23 24 23 22 23 24 24 24 26 25 23 23 22 22 21
30 19 15 9 9 6 7 3 7 6 4 3 1 -0 5 13 17 14 11 13 17 19 18 15 17 17 19 19 19 20 22 22 22 21 23 20 22 21 22 22 23 23 23 23 23 23 23 23 24 22 22 21 20 20
21 15 10 3 3 6 3 4 0 3 -2 0 -2 0 11 15 12 12 13 13 15 15 16 17 17 16 15 16 19 20 22 22 19 19 21 21 22 23 22 22 22 23 24 22 21 21 21 22 21 21 20 20 19 19
9 6 6 7 4 6 5 1 -2 -1 1 -3 -0 7 12 13 11 11 12 12 13 14 15 14 13 14 15 17 17 18 20 23 21 19 19 21 21 22 21 20 19 20 24 24 23 22 21 22 21 21 21 22 23 18
6 5 8 18 15 13 10 10 10 4 -4 -4 0 7 9 6 8 11 15 15 13 16 16 16 16 15 16 17 19 21 23 23 21 20 21 22 22 22 21 19 18 20 23 23 23 22 20 19 18 18 18 18 18 17
7 8 6 4 3 5 1 1 -1 -3 1 8 7 0 5 7 9 11 13 15 15 16 15 17 19 19 18 18 20 21 23 24 24 23 23 23 22 22 23 24 25 27 23 22 21 21 20 19 18 17 16 14 14 15
4 9 9 -2 -3 -0 -1 1 2 8 12 6 4 7 7 12 11 12 15 15 16 14 14 14 16 18 18 19 21 23 22 24 22 19 17 17 18 19 22 23 23 23 24 23 26 20 17 17 16 15 15 14 14 14
1 6 2 -5 -3 -1 1 2 0 1 7 9 12 11 12 11 13 16 14 14 12 12 14 15 16 16 15 15 16 20 21 20 19 20 18 16 17 19 21 22 21 22 23 23 22 22 25 20 20 16 15 14 13 12
7 3 0 2 1 -1 -2 0 0 10 4 1 6 9 10 12 14 15 13 13 13 14 14 13 13 15 14 14 15 16 18 19 20 20 20 19 18 18 18 19 19 19 19 18 17 17 16 15 14 13 12 12 13 11
3 -4 -2 -2 -3 -4 -4 -5 -5 -3 -1 2 9 9 10 11 10 11 13 12 11 11 14 13 11 13 15 17 20 20 22 18 18 18 18 18 18 18 19 19 19 19 18 17 17 15 14 13 12 11 10 9 9 9
-7 -6 -7 -6 -6 -5 -4 -5 -5 -7 -2 1 5 7 8 8 8 10 13 12 11 10 11 12 13 14 16 18 22 22 23 20 24 28 27 26 25 22 19 19 19 19 18 17 16 15 13 12 11 10 9 8 7 7

GFSWCAN_sfc_temp_207.txt.gz
Temp
51 50 50 50 51 52 52 52 52 51 51 51 50 50 50 50 50 43 38 41 37 31 32 36 37 29 30 28 22 28 26 26 25 19 22 22 20 22 20 23 22 22 20 18 20 19 15 36 36 30 34 38 39 40
52 51 51 51 51 51 52 52 52 51 51 51 50 50 49 49 50 47 36 42 42 34 33 38 38 38 37 35 30 29 26 26 27 18 21 21 21 19 18 14 26 21 25 22 25 27 36 35 36 40 41 40 41 39
50 52 50 50 51 52 52 52 51 51 51 50 50 50 50 50 49 45 37 38 38 31 31 31 31 37 40 39 39 27 28 32 30 30 24 22 14 22 13 16 18 24 27 22 24 27 31 35 39 39 40 41 42 42
52 52 52 52 52 52 51 50 51 51 50 50 50 50 49 49 49 46 37 38 35 30 21 27 39 33 39 39 37 36 34 34 32 29 22 17 16 24 15 21 19 25 25 23 25 30 31 35 36 37 39 40 39 39
49 49 49 49 49 49 50 50 50 50 50 50 49 49 49 49 48 41 38 38 38 30 25 26 32 35 37 37 35 34 34 30 23 17 13 17 24 22 21 21 21 27 26 22 21 31 30 32 37 39 37 38 39 37
50 50 50 50 50 50 50 50 50 49 49 48 48 48 48 48 46 37 32 35 39 35 20 15 30 29 33 32 31 31 31 29 27 20 19 24 28 23 14 14 29 31 31 32 29 35 35 36 38 39 37 37 40 40
50 50 50 50 50 50 49 49 49 49 48 48 48 48 47 47 36 32 31 34 41 35 19 13 21 29 31 31 29 28 29 28 26 24 24 23 24 27 14 17 28 32 34 35 36 35 31 34 33 37 38 39 41 40
50 49 49 49 49 49 49 49 48 48 48 48 48 48 47 46 42 33 39 43 39 29 24 8 15 21 30 20 19 28 23 21 20 23 23 23 24 21 15 26 29 32 33 32 33 34 34 35 34 34 35 35 33 35
49 49 49 49 49 48 48 48 47 47 47 47 47 47 37 33 29 34 44 43 37 31 15 16 13 10 28 24 23 22 20 11 24 18 22 25 20 16 25 28 29 31 30 28 30 30 30 29 30 31 32 32 31 33
48 48 48 48 48 48 48 47 47 47 47 46 38 32 24 34 42 42 33 27 24 27 27 16 22 16 24 23 20 18 18 18 11 22 26 21 21 31 32 31 31 31 31 29 25 25 27 27 28 29 30 33 34 34
48 48 47 47 47 47 47 47 47 46 43 32 24 24 33 40 34 22 9 12 13 9 21 23 21 18 27 16 17 23 12 15 12 18 20 17 20 25 29 29 30 30 29 29 29 29 29 29 28 28 30 32 33 34
47 47 47 47 47 46 46 46 45 35 31 34 31 34 30 23 12 9 2 13 13 15 21 17 17 20 21 26 16 20 16 18 7 18 15 15 23 28 26 26 28 29 27 27 28 28 29 29 30 30 30 32 32 34
46 46 47 47 47 46 46 45 45 43 40 32 21 13 14 9 5 0 -3 3 5 13 13 13 14 16 18 20 14 16 6 11 25 16 13 18 24 26 26 27 27 28 27 27 27 29 29 29 30 31 30 33 33 33
46 46 46 46 46 46 46 45 45 40 31 16 8 7 5 -1 2 8 10 12 19 18 18 15 14 14 12 12 13 5 18 20 9 8 15 20 23 25 27 28 26 24 25 26 27 27 27 28 30 33 34 36 33 33
46 46 46 45 45 46 46 45 44 34 24 11 10 3 4 14 8 8 9 14 19 20 17 14 14 16 12 10 10 13 10 10 13 16 18 23 25 26 25 26 24 24 25 26 27 27 27 29 30 30 33 35 33 33
45 44 39 45 45 45 45 41 35 31 26 21 19 10 16 10 7 9 8 11 20 20 21 17 5 3 7 9 10 7 8 6 17 19 22 24 25 25 25 25 25 25 26 27 27 27 28 28 29 27 27 28 30 32
43 29 44 45 44 43 42 32 33 27 21 23 19 23 15 14 14 13 12 13 18 17 9 9 5 7 7 7 7 15 12 17 19 20 23 25 23 23 24 25 26 26 27 27 27 27 27 28 28 29 28 29 29 31
32 36 44 44 38 36 27 31 28 26 13 9 18 13 24 16 12 12 11 13 18 13 11 11 10 4 2 2 12 15 15 19 21 21 23 24 23 23 25 24 25 26 27 27 27 27 27 27 27 28 28 29 30 30
34 37 43 42 36 30 18 23 21 14 15 21 18 18 17 16 15 12 12 13 14 17 17 10 10 7 12 15 13 12 14 16 16 19 21 23 24 24 24 24 26 26 27 26 26 27 27 27 27 28 28 28 27 28
43 43 42 41 37 19 11 15 20 21 10 13 11 8 12 13 18 21 21 22 20 11 12 9 11 14 13 14 17 17 17 18 18 17 19 22 24 23 24 24 25 26 26 26 26 28 26 25 27 28 28 27 26 25
36 36 38 34 28 19 14 10 16 21 20 8 15 9 7 18 20 19 19 22 20 16 9 10 11 14 19 19 16 16 17 18 17 18 18 19 23 23 23 24 24 26 25 25 24 23 24 23 24 26 25 25 25 25
33 37 21 29 19 13 11 13 9 12 6 7 4 4 -3 0 6 12 11 8 7 8 14 15 15 14 16 13 14 17 19 19 21 21 24 23 20 21 22 22 22 23 23 23 24 23 23 24 24 24 23 23 24 23
33 25 14 15 14 12 7 9 6 2 3 1 -3 -1 -3 3 7 12 9 10 12 15 16 17 15 14 13 17 19 20 20 20 19 20 21 20 22 23 22 22 23 22 22 22 24 23 23 26 25 23 23 22 22 21
29 16 13 10 8 5 2 -1 -0 -0 -3 -2 -5 -4 -1 4 13 10 8 13 16 18 18 15 16 15 17 18 17 18 19 20 20 21 21 20 19 21 22 21 22 23 23 23 23 23 23 23 24 22 21 20 20 20
17 13 8 3 -1 3 -1 -3 -7 -1 -3 -6 -5 -5 5 12 9 8 10 13 16 16 16 15 15 15 13 15 17 18 20 20 19 18 20 20 20 22 22 22 22 23 24 22 21 21 21 21 21 21 20 20 19 19
6 4 6 2 -0 5 2 -1 -5 -3 -4 -6 -5 -0 6 9 6 9 13 13 14 14 14 13 13 13 14 16 15 16 18 21 21 18 19 20 20 21 19 19 19 20 23 24 23 21 21 22 21 21 21 23 24 19
4 3 3 16 14 10 6 7 9 1 -6 -5 -5 -2 5 3 3 12 15 15 14 16 16 16 15 14 14 16 18 19 21 22 21 20 22 21 22 22 21 19 18 20 23 23 22 21 20 19 18 18 17 17 18 18
4 4 5 5 4 3 -1 -2 -5 -4 -3 5 4 -4 -2 3 8 12 13 15 15 16 15 16 17 18 17 17 18 19 21 23 23 23 23 22 23 22 22 24 24 25 22 22 21 21 20 19 18 17 16 14 14 16
2 6 6 -4 -3 1 -3 -1 -1 5 10 3 1 3 6 10 10 10 14 15 16 14 13 14 16 17 18 19 20 22 20 21 20 17 17 17 18 19 23 23 23 23 23 22 25 20 17 17 16 15 14 14 14 14
0 3 -0 -9 -3 -1 0 0 -2 -3 4 6 10 8 8 7 8 14 13 13 12 11 13 14 15 15 14 14 16 19 20 19 19 20 17 16 16 18 19 19 21 22 24 23 22 22 25 20 20 16 15 14 13 11
5 -1 -2 -2 -3 -4 -4 -2 -4 9 -1 -4 -0 2 5 9 14 14 12 12 12 13 13 13 13 14 14 14 14 16 17 19 19 20 19 18 18 18 18 18 18 19 18 18 18 17 17 16 15 14 13 13 14 11
-0 -7 -4 -2 -4 -6 -7 -8 -9 -7 -6 -4 2 3 8 7 8 11 12 12 11 11 13 13 11 12 14 16 19 19 22 18 17 18 17 17 17 17 18 19 19 19 18 17 16 15 14 13 12 11 10 9 9 9
-11 -10 -11 -9 -7 -7 -6 -7 -7 -7 -6 -5 -1 1 4 7 6 11 13 12 10 10 11 12 13 14 15 16 21 22 22 20 23 27 27 26 25 22 19 19 19 18 17 16 15 14 12 11 10 9 8 7 6 5

GFSWCAN_sfc_temp_210.txt.gz
Temp
52 51 51 51 50 49 49 50 50 50 50 50 50 50 51 50 49 41 37 41 38 32 32 35 37 32 31 30 25 28 28 27 25 20 23 22 20 19 17 19 19 20 19 18 22 19 16 33 33 27 30 35 35 37
51 51 51 50 50 50 49 49 50 51 51 51 50 50 50 50 50 45 36 42 42 35 34 38 39 40 39 37 31 29 28 26 28 19 20 20 21 16 16 13 23 19 22 19 22 23 30 31 30 34 35 36 37 37
51 51 50 50 51 50 51 52 51 51 50 50 50 50 50 50 49 44 37 38 37 32 32 33 33 37 40 39 39 29 28 30 28 28 22 21 14 20 11 15 16 21 24 22 24 25 29 34 38 39 38 36 39 41
51 50 50 51 52 52 51 51 51 51 50 50 50 50 49 49 48 45 36 37 35 31 23 28 38 33 37 38 37 36 33 32 30 28 20 16 16 23 13 19 17 23 24 21 21 26 28 30 31 34 37 39 36 39
50 50 51 51 52 51 51 50 51 50 50 50 49 49 49 48 46 41 38 37 38 32 25 27 32 34 35 35 34 34 32 29 22 16 11 16 23 21 19 19 16 24 24 19 19 29 28 29 34 36 34 35 37 36
51 51 51 51 50 50 50 50 50 50 49 49 49 49 48 47 44 37 30 35 38 34 22 17 29 27 32 32 30 29 30 27 25 20 17 22 26 22 12 12 25 27 28 30 27 32 32 33 35 36 34 35 37 35
48 48 48 48 49 49 50 50 49 49 48 48 48 48 47 45 37 32 31 35 40 34 19 14 21 29 31 30 28 27 28 27 25 23 22 22 23 26 12 16 25 29 31 31 32 32 28 31 30 33 33 34 35 34
49 49 50 50 50 49 49 49 49 48 48 48 48 47 47 46 41 33 36 43 38 28 21 7 14 21 30 20 19 27 22 20 19 21 23 21 23 21 13 22 25 28 29 31 33 33 31 32 31 31 33 33 31 32
49 49 49 49 49 49 49 48 48 48 48 48 47 46 37 33 30 32 44 41 34 28 13 14 12 10 27 22 22 20 19 10 24 18 21 24 20 14 24 24 26 30 29 29 31 31 30 28 29 30 30 30 29 30
49 49 49 49 48 48 48 48 48 47 47 46 37 32 25 33 42 42 29 23 22 27 26 15 21 15 23 22 19 18 17 17 10 21 25 20 20 29 30 30 30 29 30 30 24 24 27 26 28 28 29 31 31 31
48 48 48 48 48 47 47 47 47 46 42 32 24 25 32 39 31 19 8 10 9 9 21 21 20 17 26 15 16 22 10 13 9 16 20 17 20 23 28 26 28 28 29 29 28 28 28 27 26 27 28 31 30 30
47 47 47 47 47 47 47 46 44 34 31 33 29 32 28 19 9 7 -2 11 12 14 20 16 16 19 19 24 16 18 14 17 5 16 13 13 21 25 24 24 26 27 27 26 27 26 27 27 28 28 28 29 30 31
47 47 47 47 47 46 46 45 44 43 38 29 18 11 12 6 4 -0 -3 1 4 11 12 12 12 13 16 14 12 17 5 10 23 13 12 14 24 25 24 25 25 27 27 26 26 27 27 28 29 28 28 31 30 30
47 47 46 46 46 46 45 45 44 39 29 15 6 5 2 -4 0 6 8 10 17 17 16 14 13 14 10 10 9 8 15 16 7 1 10 19 22 23 25 26 25 24 25 24 25 26 27 27 27 29 32 33 32 29
46 46 46 45 46 46 45 44 42 32 22 11 8 3 6 12 4 5 6 13 18 19 16 13 13 16 9 7 8 12 6 5 8 12 17 22 23 23 24 25 24 24 24 24 25 26 27 27 27 28 30 33 30 30
45 43 39 45 45 45 44 39 33 29 17 11 8 8 14 9 6 7 6 10 18 18 21 17 5 2 5 6 6 3 6 6 15 16 22 21 22 23 23 24 24 25 24 24 25 27 27 27 27 28 29 29 28 30
41 28 44 44 44 43 41 31 26 22 12 9 10 21 14 17 14 10 10 10 16 16 13 10 3 6 4 5 4 12 12 15 15 19 21 21 20 21 22 23 24 25 24 25 26 27 26 28 29 27 28 29 30 30
31 35 44 42 37 35 26 30 28 26 11 10 17 12 21 15 10 9 8 8 17 13 11 10 10 3 5 -4 6 13 12 14 18 16 19 21 22 21 23 22 24 24 24 25 26 26 27 27 27 27 27 29 30 30
33 37 43 42 35 27 20 23 21 14 14 19 22 19 22 16 13 10 11 15 16 20 17 10 9 3 8 11 10 11 14 14 16 17 19 20 20 21 22 22 23 24 24 24 26 26 26 26 26 27 28 28 27 27
43 42 41 40 36 17 10 14 20 21 12 12 11 7 10 11 15 23 21 22 22 16 11 10 10 12 9 10 17 17 17 17 15 15 17 20 21 21 22 22 23 23 24 26 25 28 25 25 25 27 27 26 25 24
36 37 39 30 18 14 11 10 15 19 19 7 11 8 6 13 19 18 17 17 17 8 4 7 9 15 19 18 19 18 15 15 14 16 16 16 22 21 21 22 23 23 24 24 23 23 23 22 23 25 25 24 25 25
32 36 20 30 12 7 7 12 10 11 5 3 3 3 -6 -3 0 7 8 6 6 7 13 13 12 10 14 14 14 12 15 17 18 19 23 22 19 19 20 21 21 21 22 22 23 23 23 23 23 23 23 22 23 22
31 24 12 17 10 9 6 8 5 0 3 0 -5 -2 -4 -1 5 12 8 9 11 13 15 16 12 13 13 15 16 16 17 17 16 17 19 20 20 21 21 21 22 21 21 22 23 22 23 25 25 22 23 22 22 21
27 11 10 6 6 4 2 -1 -2 -2 -5 -4 -7 -4 -3 -2 13 8 7 10 14 17 16 13 16 14 16 16 15 16 17 18 18 19 20 19 18 19 21 21 22 22 22 22 22 22 22 22 23 22 21 21 21 20
14 9 9 2 -1 3 -2 -4 -7 -1 -3 -9 -6 -5 -1 9 8 5 8 13 15 17 16 16 15 14 12 14 16 17 19 19 17 17 20 20 19 20 21 22 21 22 23 21 20 21 21 21 21 21 21 20 19 19
5 3 5 0 -1 4 1 -1 -6 -4 -5 -7 -6 -4 -1 7 4 5 12 13 14 15 14 13 12 12 13 15 14 15 17 20 19 18 19 20 19 19 19 18 18 19 23 24 23 21 21 22 22 22 22 23 24 19
3 2 2 15 13 10 5 6 6 1 -7 -5 -5 -4 0 0 3 12 15 15 14 15 16 16 15 13 13 15 17 19 20 20 20 20 22 22 21 22 21 19 17 20 23 22 22 21 19 18 18 18 18 18 19 19
6 4 4 1 4 1 -1 -4 -5 -4 -3 3 3 -5 -4 1 8 12 14 15 15 15 15 16 17 17 16 17 18 19 21 23 23 22 23 22 23 22 22 23 24 25 22 21 21 21 20 19 18 18 16 15 14 16
1 5 5 -4 -6 -4 -3 -1 -1 3 9 2 0 2 6 11 10 9 14 15 15 13 13 13 15 17 17 18 20 21 19 20 20 17 16 16 17 18 22 22 22 22 22 22 25 20 18 18 17 16 15 14 14 15
0 2 -1 -10 -4 -1 -2 0 -3 -3 2 5 8 7 9 8 10 14 13 12 11 11 13 13 15 14 14 14 15 18 19 19 18 19 17 15 15 18 18 19 21 23 24 24 23 23 25 20 20 17 15 14 13 12
4 -2 -3 -3 -3 -5 -5 -4 -4 8 -3 -6 -4 2 3 9 12 12 11 12 11 12 12 13 12 14 14 14 14 15 17 19 19 19 18 18 18 17 17 17 18 19 19 19 19 18 18 16 16 15 14 14 14 11
-1 -8 -4 -2 -4 -7 -7 -9 -11 -8 -7 -5 -1 1 5 9 6 10 12 11 10 10 13 12 11 12 14 16 17 18 22 18 18 18 17 17 17 17 18 18 17 18 17 17 16 16 15 14 13 12 11 10 9 9
-13 -12 -12 -10 -7 -7 -7 -8 -7 -8 -7 -6 -2 -0 1 6 5 9 12 11 9 9 10 11 12 14 15 17 20 21 22 19 22 27 27 26 25 22 19 18 18 17 16 15 14 13 12 11 10 9 8 7 6 6

GFSWCAN_sfc_temp_213.txt.gz
Temp
55 55 53 53 52 51 50 49 49 49 50 50 50 51 51 51 50 43 37 40 38 32 31 35 37 32 31 31 27 29 29 29 27 22 24 24 22 21 18 19 18 19 18 19 22 20 16 29 29 25 27 30 32 34
52 51 51 51 50 50 49 49 49 49 50 50 50 51 50 50 49 44 35 41 41 34 33 37 38 39 38 38 32 30 29 28 30 24 23 22 21 16 16 13 22 18 21 18 22 21 27 29 28 31 32 32 33 32
50 50 49 49 49 49 49 49 50 50 50 50 50 50 50 50 49 43 36 37 37 31 32 32 30 38 41 39 39 29 29 31 28 28 23 21 15 21 13 15 16 18 22 20 22 23 24 30 34 32 34 32 35 37
51 51 50 49 49 49 49 50 51 51 50 50 50 50 50 49 48 44 35 36 35 32 24 27 37 33 38 38 37 35 32 31 29 27 19 17 17 23 13 18 17 21 21 19 19 23 26 27 31 34 35 35 34 35
50 50 50 49 49 51 51 51 51 50 50 50 49 49 48 47 46 40 37 36 37 33 27 27 31 34 34 35 33 33 31 28 23 17 12 16 22 20 18 18 14 21 21 18 19 26 24 26 31 32 30 32 33 34
50 51 51 51 51 51 50 50 50 50 49 49 49 48 48 47 44 37 31 35 37 34 24 20 30 29 31 31 31 29 29 27 25 19 17 21 25 21 11 11 21 24 26 26 24 28 29 31 31 32 31 32 33 32
50 51 51 50 50 50 50 50 50 49 49 49 48 47 46 46 38 33 31 35 40 34 22 16 22 29 30 29 27 26 26 25 25 22 19 21 22 24 12 15 23 25 27 28 30 28 26 29 28 32 31 32 34 33
50 50 49 49 49 50 50 49 49 48 48 48 47 47 46 45 41 34 37 41 36 27 22 10 16 20 29 19 17 26 21 19 19 21 23 21 22 19 11 21 23 26 27 27 29 31 30 32 31 31 32 31 29 29
48 48 48 48 49 49 49 48 48 48 48 47 46 45 38 34 31 33 43 39 33 28 15 15 12 10 27 21 22 19 18 10 23 16 21 24 19 13 22 23 23 27 25 26 29 29 29 27 27 28 29 29 28 29
48 48 48 48 48 48 48 48 48 48 47 45 37 32 26 32 42 39 30 23 21 17 16 16 20 14 22 21 18 17 17 17 9 20 25 19 19 27 27 29 27 26 26 27 23 23 26 25 26 27 28 29 29 29
47 47 47 47 48 48 48 48 48 46 42 32 26 27 33 38 29 18 9 10 7 8 21 20 19 16 25 15 15 22 9 12 7 15 18 17 18 17 20 21 25 25 27 27 27 27 27 26 25 25 26 28 29 29
47 47 47 47 47 48 48 47 45 35 32 33 30 31 27 17 8 7 -1 9 11 13 19 15 14 18 18 24 17 19 12 13 4 15 12 10 19 24 22 20 23 25 26 25 26 25 25 26 26 26 27 28 29 30
47 47 47 47 47 47 46 45 44 42 37 28 18 9 11 4 4 0 -3 1 4 11 11 11 11 12 14 13 12 18 9 9 21 12 11 9 20 21 16 19 24 27 25 25 26 26 26 26 27 27 27 29 29 30
47 47 46 46 46 46 45 44 43 37 28 14 6 4 1 -3 -0 5 7 9 16 16 15 13 12 13 10 10 10 11 14 14 4 -1 6 14 16 19 22 24 23 23 24 23 24 25 24 25 26 28 29 30 31 29
46 46 46 45 46 45 45 43 41 30 21 10 7 3 1 10 3 2 2 11 17 17 16 12 12 15 10 5 7 10 4 1 4 5 15 19 21 20 21 24 23 23 22 22 23 23 24 26 26 27 29 30 31 28
45 44 38 45 45 44 42 38 32 28 13 8 5 5 15 8 4 5 4 9 18 17 20 15 5 2 4 7 5 2 1 -1 11 16 21 21 20 20 22 23 23 23 23 23 23 24 25 26 26 27 28 30 28 28
41 29 45 45 44 41 40 29 25 14 9 5 6 17 13 14 7 8 8 9 14 15 8 9 3 6 1 2 2 8 4 11 13 18 19 18 18 19 20 21 24 23 23 22 23 24 25 27 27 27 26 29 30 30
30 37 44 42 37 34 26 25 26 15 13 7 15 12 19 15 10 9 6 7 14 9 9 9 9 1 4 4 4 11 10 11 16 16 17 19 18 19 21 21 22 23 22 23 23 23 25 25 25 26 27 28 29 29
33 37 42 41 35 25 19 23 19 10 14 15 22 21 22 21 17 14 13 14 16 20 18 12 9 3 8 9 7 8 9 10 15 16 17 17 18 18 19 20 22 22 22 22 23 24 25 25 25 26 27 27 26 26
42 42 40 38 35 17 9 13 23 21 15 12 12 8 9 10 14 21 21 22 21 14 11 11 9 10 8 7 15 16 17 16 13 13 15 18 18 18 19 20 21 22 22 23 24 27 24 23 24 26 26 26 24 23
36 34 36 27 15 12 10 13 13 18 19 6 9 6 6 6 13 15 11 13 11 4 2 6 6 10 17 15 15 16 15 13 12 13 14 14 19 20 19 20 21 22 22 23 22 23 23 21 22 23 24 24 24 24
30 34 20 25 10 5 5 11 10 9 4 2 1 -0 -7 -3 -2 1 6 6 4 5 11 9 8 9 13 10 11 7 12 14 15 16 21 20 17 18 18 20 20 20 21 22 22 22 22 21 22 23 22 21 23 22
30 23 12 18 10 7 4 6 5 -0 2 -0 -7 -2 -5 -7 -0 10 5 7 9 14 14 14 11 9 11 14 14 14 15 15 15 16 17 17 19 20 19 20 21 20 20 20 22 22 22 25 24 22 22 22 21 21
25 9 7 1 1 2 -0 -3 -3 -3 -6 -4 -7 -3 -4 -6 6 6 5 8 13 17 17 13 15 14 15 16 14 15 16 17 16 17 19 18 17 18 19 20 21 21 20 21 21 22 22 22 23 22 21 20 20 20
13 8 6 2 -2 1 -4 -4 -6 -1 -3 -11 -6 -5 -3 2 5 3 6 11 16 17 16 16 15 14 12 13 14 16 18 17 16 15 18 20 19 19 20 21 21 21 23 20 20 20 20 21 21 21 20 20 19 19
4 2 5 5 -2 3 -0 -0 -5 -4 -6 -7 -7 -6 -5 2 3 4 12 14 15 15 14 13 12 12 13 15 13 14 16 19 18 16 19 20 19 18 18 18 18 19 23 23 22 21 21 22 22 22 22 23 24 19
2 2 2 15 12 9 5 6 6 -1 -7 -5 -6 -6 -5 -4 2 12 16 15 14 16 16 15 14 13 13 14 17 18 19 20 19 20 22 22 21 21 21 18 17 20 22 22 22 21 19 19 19 19 18 19 19 19
5 4 3 -0 0 -2 -2 -5 -6 -5 -4 2 2 -5 -4 4 8 12 13 15 15 15 15 15 16 16 16 16 17 19 19 21 22 22 23 22 21 21 21 23 24 25 22 22 21 21 20 19 18 17 16 15 16 18
1 5 4 -4 -6 -5 -5 -1 -2 2 8 2 -0 1 4 12 12 12 15 14 15 13 13 13 14 16 17 18 19 20 19 19 19 17 15 15 16 17 21 22 22 22 22 22 24 20 18 18 17 16 16 15 15 15
1 2 -0 -11 -4 -1 -3 -1 -3 -2 2 4 7 6 10 10 13 14 13 13 11 11 12 13 14 14 13 14 15 18 19 19 18 18 16 14 15 17 18 19 20 22 24 24 22 22 25 20 20 17 16 14 14 12
4 -1 -3 -4 -4 -5 -6 -4 -4 6 -2 -7 -4 1 5 6 12 13 11 12 12 12 12 13 12 14 13 13 14 15 17 19 18 19 18 18 17 17 17 17 18 19 20 19 19 18 18 17 16 15 14 13 14 11
-2 -9 -5 -2 -4 -7 -8 -10 -11 -8 -8 -6 -2 -1 3 4 3 8 12 11 11 10 13 12 11 12 14 15 18 19 22 18 18 17 17 17 17 17 17 18 18 19 18 17 17 16 15 14 13 12 10 9 9 9
-14 -13 -13 -10 -8 -7 -9 -9 -8 -9 -8 -7 -3 -2 -2 3 2 8 12 12 10 9 10 11 12 13 15 16 20 21 23 20 23 28 27 26 24 21 18 18 18 17 16 15 15 14 13 11 10 10 9 8 7 7

GFSWCAN_sfc_temp_219.txt.gz
Temp
53 53 54 53 54 54 55 55 56 55 54 53 53 53 52 50 49 43 38 41 37 31 32 33 36 31 31 30 25 29 28 27 27 24 24 23 22 22 20 22 21 22 20 20 23 20 17 27 27 24 26 27 29 29
52 53 53 54 54 55 55 55 53 53 52 52 52 52 51 49 48 44 36 41 41 34 32 36 35 34 35 36 32 29 30 28 30 26 24 23 21 16 18 14 22 18 22 20 22 21 26 25 27 29 29 28 29 28
52 54 54 55 55 53 53 52 51 50 50 49 49 49 49 49 48 44 37 38 37 31 30 31 29 35 38 36 37 29 29 32 30 30 26 23 16 20 11 14 16 19 22 20 22 21 24 28 30 32 31 31 32 32
53 52 51 51 51 50 50 49 49 49 48 49 49 50 49 49 48 43 36 37 36 33 26 28 37 33 37 37 37 36 33 31 30 29 23 19 19 23 13 18 17 22 22 19 17 21 21 23 28 30 32 33 31 31
49 50 50 49 49 49 48 48 48 49 49 50 50 50 50 49 46 39 36 35 37 34 25 26 30 32 34 35 34 34 32 30 26 22 20 21 24 21 16 17 14 20 20 17 15 23 22 23 26 27 26 27 28 28
50 49 48 48 48 48 48 49 50 50 50 50 49 49 48 47 44 36 31 35 37 35 26 22 30 28 30 30 30 29 30 28 27 24 22 23 25 21 11 10 21 20 22 24 21 23 24 27 27 27 26 27 28 28
49 49 49 49 50 50 50 50 49 49 49 48 48 48 47 45 38 33 31 35 40 35 25 18 21 28 30 30 28 28 28 26 27 24 22 21 21 22 12 9 21 21 22 23 24 22 23 26 24 28 28 29 30 29
49 49 49 50 50 50 50 49 49 49 48 48 47 47 46 46 41 33 36 40 37 29 25 15 18 23 30 23 20 25 23 22 21 21 22 20 20 17 9 18 19 20 23 23 24 26 25 26 26 26 28 27 26 26
49 49 49 50 50 50 49 49 48 48 47 47 46 44 37 34 31 32 43 38 33 31 20 20 17 15 27 22 23 22 21 12 22 15 18 22 16 12 19 20 19 21 21 22 24 24 24 22 23 24 25 25 24 25
49 49 49 49 49 49 49 48 48 47 46 45 37 32 26 32 40 39 30 25 23 20 18 18 22 17 22 21 19 18 16 16 4 18 23 18 16 24 23 23 23 19 20 20 16 19 23 22 23 23 23 25 25 26
49 49 49 49 48 48 48 48 47 45 42 32 27 26 30 36 30 19 9 13 12 13 21 19 18 15 23 14 13 20 7 10 2 12 15 13 15 13 16 18 19 20 20 19 20 22 23 23 21 22 23 25 27 26
47 47 48 48 48 48 48 47 45 34 31 33 29 30 27 17 9 10 2 10 12 12 17 13 12 15 16 21 13 18 8 11 -0 13 8 8 13 21 18 17 20 21 19 19 21 20 21 23 23 23 23 24 25 27
46 47 48 48 48 47 46 45 43 41 36 30 19 9 12 4 5 0 -3 -1 3 9 10 12 9 10 12 11 8 15 5 6 17 6 6 8 17 19 15 16 18 20 18 18 20 22 22 22 24 23 23 25 25 25
47 47 48 47 45 46 45 44 42 36 28 15 7 6 1 -3 -1 3 5 7 13 14 13 11 10 10 12 8 7 9 11 12 -0 -5 -0 11 15 17 17 18 17 18 18 18 19 21 21 22 22 24 25 25 25 25
46 46 46 45 45 45 44 42 39 29 21 6 6 2 -3 7 1 -1 -1 8 15 15 14 11 10 13 7 1 4 7 -0 -4 0 1 8 16 20 19 18 19 18 18 18 17 19 20 21 22 22 22 25 25 26 27
46 44 41 45 44 43 41 36 30 26 9 5 3 3 13 7 3 4 5 8 16 14 18 13 -1 -0 -0 3 -1 -2 -4 -4 5 8 16 15 17 16 17 18 18 18 18 18 18 19 21 21 21 22 24 25 27 28
42 35 43 42 41 40 39 28 23 7 5 2 4 15 9 6 5 6 4 6 13 12 6 3 1 4 2 -4 -3 4 0 7 10 13 16 15 15 15 17 18 19 20 18 18 17 20 21 22 23 23 23 25 27 28
35 40 42 41 35 33 24 17 9 5 12 7 11 13 15 10 13 15 9 9 10 3 5 5 5 -3 -1 -3 2 8 7 7 12 14 16 16 13 15 18 17 18 18 17 18 19 20 21 21 22 23 23 25 26 26
38 38 41 40 34 24 15 16 12 9 13 16 21 19 21 21 17 15 13 14 15 17 13 6 3 2 6 6 5 5 5 8 10 14 15 15 13 14 16 17 16 17 18 18 19 20 22 23 24 23 24 24 23 24
40 39 37 36 33 15 7 10 18 13 13 10 11 7 9 10 11 19 20 19 18 8 7 5 6 9 9 10 15 15 15 14 10 10 12 15 10 11 15 16 17 18 17 19 21 25 23 22 22 22 24 24 20 21
32 31 33 25 12 10 7 8 6 12 15 4 1 3 3 2 8 10 2 11 7 -3 2 8 10 14 16 13 13 15 13 10 11 10 11 11 15 16 17 17 16 18 18 19 19 21 22 20 21 23 22 20 21 22
24 33 16 18 8 2 3 7 6 7 3 -2 -3 -3 -4 -5 -5 -2 3 2 -4 3 4 6 8 8 12 10 10 5 10 9 11 12 17 17 12 14 15 15 16 17 18 19 20 20 20 21 22 23 21 20 20 20
27 21 9 7 9 6 2 3 3 -2 3 -2 -9 -4 -7 -10 -5 4 -2 -2 3 9 14 15 15 16 15 16 15 13 12 11 12 13 14 14 15 15 15 16 18 17 17 19 21 19 19 24 23 20 21 20 20 19
22 6 2 -2 -1 1 -2 -5 -5 -5 -8 -6 -9 -4 -6 -9 -2 -1 -3 6 13 17 16 16 17 15 16 16 14 14 15 15 14 14 15 14 13 14 16 18 19 18 20 21 18 18 20 22 22 20 20 19 19 18
12 7 4 -0 -6 1 -4 -5 -6 -1 -5 -13 -7 -5 -5 -5 -5 -4 4 9 14 16 16 16 15 14 12 12 14 15 17 15 13 12 15 15 15 16 17 18 18 19 21 18 16 18 19 20 20 19 19 19 19 18
2 -0 3 5 -2 2 -2 -2 -6 -5 -7 -6 -8 -8 -9 -6 -6 3 9 10 13 14 14 13 12 11 12 14 12 13 15 17 16 14 16 18 18 16 15 15 17 18 21 20 20 19 20 20 21 20 21 22 23 18
0 -0 2 14 9 6 3 3 3 -2 -7 -4 -6 -8 -8 -7 -3 10 14 14 13 15 15 15 14 13 12 13 16 17 18 19 18 17 19 21 20 20 19 18 17 19 22 22 22 21 20 19 19 19 18 18 19 18
-0 1 1 -2 -3 -4 -5 -7 -7 -5 -4 -0 1 -6 -4 1 8 12 13 15 15 15 14 15 16 16 15 15 17 18 19 19 21 21 21 21 21 20 21 23 23 24 21 21 21 21 20 19 18 18 17 16 16 18
-1 5 3 -4 -7 -6 -6 -3 -3 1 7 1 -0 -0 1 11 12 12 14 14 14 13 12 12 14 16 16 17 19 20 18 18 17 15 14 13 15 16 20 22 22 22 22 22 24 21 19 18 17 16 16 15 15 15
-1 3 -1 -11 -4 -2 -4 -3 -5 -3 3 5 6 6 8 11 13 15 13 12 11 10 11 12 14 14 13 13 14 17 19 18 18 16 14 13 14 17 19 19 20 22 23 23 23 23 25 21 21 18 16 15 14 13
2 -2 -4 -5 -4 -6 -7 -6 -6 4 -2 -5 -3 1 3 7 12 14 12 12 11 12 12 12 12 14 13 13 13 14 16 19 18 18 18 17 17 17 18 19 19 20 20 20 19 19 18 17 17 16 15 15 15 13
-3 -11 -6 -2 -4 -8 -10 -13 -13 -10 -9 -7 -5 -4 -1 3 6 11 12 11 10 10 12 12 10 11 14 15 18 20 24 20 18 17 17 17 16 17 18 19 19 19 19 18 18 17 16 15 14 13 12 11 11 11
-16 -15 -15 -11 -8 -7 -9 -9 -9 -10 -9 -8 -5 -5 -5 1 3 9 12 12 10 9 9 11 12 13 15 17 19 21 23 23 27 29 28 26 24 21 18 18 18 18 18 17 16 15 14 13 12 11 10 10 9 8

GFSWCAN_sfc_temp_222.txt.gz
Temp
52 53 53 53 53 53 54 54 54 54 54 55 55 55 55 51 51 45 38 41 39 33 32 35 38 36 34 36 33 32 31 30 31 28 29 28 28 30 28 31 28 28 25 25 27 23 21 33 33 30 33 36 36 35
52 52 53 52 53 53 53 54 54 54 54 55 55 52 51 50 49 45 36 42 42 35 33 39 39 40 39 40 34 32 33 33 36 32 30 32 27 28 27 24 29 24 31 29 30 30 33 36 36 37 38 37 37 36
51 52 52 52 52 53 54 54 54 54 54 54 53 52 50 49 48 44 38 38 39 34 33 35 35 40 42 40 41 34 33 37 35 37 34 31 26 30 24 25 26 29 30 29 29 30 32 35 37 39 39 38 39 40
51 51 51 52 53 54 54 54 53 52 51 51 52 50 49 47 46 44 37 39 41 39 30 30 41 36 40 41 41 40 39 37 36 37 32 30 27 31 27 27 27 31 29 28 28 30 31 33 36 37 37 38 37 38
51 52 51 51 51 50 50 50 50 50 50 50 49 49 48 47 45 41 40 40 41 39 29 30 36 37 38 39 38 39 38 37 34 30 29 28 30 27 26 26 25 28 30 27 27 33 33 33 38 36 34 35 36 35
49 49 50 49 49 49 48 48 48 47 47 47 47 47 48 46 46 42 36 40 40 41 31 26 34 33 35 36 35 34 35 33 34 31 30 31 29 30 23 21 29 30 30 31 31 33 33 35 36 37 34 35 35 35
49 49 48 48 48 49 49 49 50 50 49 49 48 47 47 45 40 35 34 38 41 40 31 24 26 32 34 34 32 33 33 32 33 30 28 28 28 30 24 21 28 29 30 31 33 32 30 33 33 36 35 35 35 34
49 49 49 50 50 50 49 49 49 49 48 48 47 47 46 46 43 36 39 40 40 35 33 24 23 27 32 28 27 30 28 29 28 28 27 26 26 25 19 26 27 29 31 31 31 32 31 33 33 32 34 33 31 31
48 49 50 50 49 49 49 49 48 48 47 47 46 45 40 37 34 35 42 40 37 36 25 26 21 20 31 27 28 28 28 22 27 23 25 26 22 18 25 27 28 29 28 28 30 31 31 29 30 30 30 30 29 29
49 49 49 49 49 49 49 48 48 47 46 44 39 36 29 32 40 40 34 31 28 27 28 24 26 22 27 27 24 25 24 22 17 23 27 22 22 29 29 29 29 27 26 27 22 24 28 26 28 28 28 29 29 29
49 49 49 49 48 48 48 48 47 45 42 36 30 28 33 37 34 25 19 21 19 21 26 24 24 22 28 23 22 25 19 19 13 19 20 18 19 22 23 26 27 27 27 26 26 26 27 26 25 25 25 27 28 29
49 48 48 48 48 48 47 46 44 36 34 35 32 33 30 22 19 18 10 16 19 18 22 22 21 24 24 27 22 22 17 18 11 21 17 14 20 26 26 24 26 27 25 24 26 23 24 25 25 24 24 25 26 28
48 48 48 48 48 47 46 45 43 41 38 33 25 19 21 15 13 14 8 11 15 19 20 20 19 22 22 22 19 18 13 14 21 15 14 17 24 26 23 23 25 27 24 22 23 25 24 24 25 24 23 25 26 26
48 48 48 47 46 46 45 44 42 38 32 20 16 11 10 11 13 14 16 18 20 21 20 22 19 21 19 16 14 13 15 16 9 6 11 20 23 24 25 25 23 21 22 21 21 22 21 21 22 24 25 25 25 25
46 45 45 45 45 44 43 41 38 31 26 15 15 9 10 13 10 10 9 16 19 22 22 20 19 21 15 12 12 13 9 7 9 12 19 23 24 23 23 23 23 21 20 19 20 20 20 20 20 22 25 25 26 26
44 43 41 44 43 42 40 37 33 29 14 14 12 12 15 16 15 14 14 18 20 22 23 20 13 13 12 12 9 9 8 7 15 17 23 23 22 22 22 22 22 20 20 20 19 20 20 19 20 22 24 25 26 27
43 36 43 42 41 39 38 31 26 11 12 12 13 19 16 15 16 16 16 18 18 22 18 15 11 12 9 8 7 11 10 17 19 21 22 22 20 20 20 20 20 21 20 19 18 18 19 21 22 21 22 26 26 27
35 38 42 41 36 34 26 21 14 13 13 14 16 18 19 18 20 19 16 17 19 16 16 16 12 9 9 6 11 16 17 18 19 19 20 20 19 19 20 19 20 20 19 18 18 19 20 20 21 23 25 25 26 27
36 37 41 40 35 26 17 16 17 10 16 19 21 20 22 21 19 18 19 18 19 20 16 13 11 11 14 15 14 15 15 15 15 17 18 18 18 17 17 18 17 17 18 19 19 20 21 22 24 25 24 25 25 25
39 39 37 35 34 19 12 13 19 14 15 14 14 12 13 15 15 21 21 17 20 16 14 12 14 16 16 17 18 18 18 18 16 13 15 19 19 16 16 17 18 19 19 19 21 24 23 25 26 24 25 25 24 23
32 32 32 26 14 12 10 10 9 14 14 10 5 9 10 9 11 12 11 13 13 9 11 14 15 17 19 19 19 18 17 16 13 13 13 12 17 17 18 19 19 19 18 19 20 21 23 22 24 24 24 22 22 23
27 32 19 20 10 7 6 8 10 10 9 4 5 3 5 7 5 7 7 8 8 13 12 14 15 16 17 17 17 15 16 14 13 13 17 17 14 15 17 18 17 16 18 19 20 20 22 23 25 24 24 23 23 22
27 21 12 11 12 9 4 6 6 2 6 3 -1 4 2 1 2 6 5 5 9 13 16 17 18 18 17 18 17 17 17 14 14 15 16 16 16 16 16 16 17 17 17 20 22 22 22 25 24 22 22 22 21 20
22 7 4 1 3 3 2 -0 1 2 0 1 -0 0 -0 1 2 4 5 9 16 19 19 18 18 16 17 17 15 16 17 17 16 16 17 15 14 15 17 17 19 20 20 21 22 22 23 23 23 22 21 20 20 20
13 7 6 6 -4 3 -0 -0 -2 3 -2 -9 -4 -0 -0 -2 1 -1 5 12 15 17 16 17 16 15 12 14 15 16 18 17 15 14 17 17 16 16 18 20 20 21 23 22 21 21 21 22 21 21 21 20 20 20
3 0 3 6 0 4 1 1 -3 -3 -3 -3 -1 -2 -3 -0 -2 2 10 13 13 15 14 13 12 12 13 15 13 14 16 18 17 15 17 18 19 17 16 16 18 20 23 23 22 21 20 21 21 21 22 23 23 20
0 -0 4 14 10 7 5 4 4 2 -4 -1 -2 -4 -2 -4 -3 11 14 14 13 15 16 15 14 13 13 14 16 18 19 20 19 18 20 21 21 21 20 19 18 21 24 24 23 22 21 20 20 19 19 19 19 19
0 1 1 -0 -1 -1 -4 -5 -5 -2 0 3 2 -3 -2 2 9 12 14 16 15 15 14 15 16 16 16 16 18 19 19 19 21 22 22 22 22 21 22 24 24 24 23 23 22 22 21 20 19 19 18 18 17 18
0 5 5 -4 -6 -4 -4 -2 -1 4 7 4 5 5 5 12 13 12 14 14 15 14 13 13 14 16 17 18 19 19 19 18 16 15 14 14 15 17 21 23 23 23 23 23 24 21 19 19 18 17 17 16 17 17
-2 2 -1 -10 -4 -1 -3 -2 -3 -0 4 7 7 8 9 12 14 15 14 13 11 10 12 13 14 14 14 14 14 17 20 19 18 16 14 13 14 18 20 20 21 22 24 24 23 23 25 21 21 19 17 16 16 15
2 -2 -4 -4 -3 -4 -5 -4 -4 4 -0 -2 -1 2 5 7 12 14 13 12 12 12 12 13 12 14 14 13 13 14 17 20 18 19 19 18 18 19 19 19 20 21 21 20 20 19 19 18 18 17 16 16 16 15
-3 -11 -6 -2 -4 -7 -8 -11 -10 -8 -7 -4 -2 -2 1 6 8 11 12 12 10 10 13 12 10 11 14 15 18 21 24 22 19 19 18 18 18 18 19 20 20 20 20 19 19 18 17 16 16 15 14 13 13 13
-16 -15 -15 -11 -7 -7 -9 -8 -8 -9 -6 -6 -4 -3 -2 2 4 10 14 14 10 9 10 11 12 13 15 17 19 21 24 23 28 29 28 26 24 22 19 20 20 19 19 18 17 16 15 14 13 13 12 12 11 11

GFSWCAN_sfc_temp_225.txt.gz
Temp
52 52 53 53 53 53 53 54 54 53 54 54 54 54 54 54 55 51 39 42 44 36 34 35 39 38 38 40 35 35 34 32 31 29 31 30 31 33 33 37 32 31 28 27 29 24 22 38 36 32 35 38 38 38
52 52 52 53 52 52 53 53 53 53 53 53 54 54 54 54 54 48 37 42 42 36 33 38 41 42 42 44 41 39 36 37 40 33 32 34 30 32 33 27 36 27 35 31 33 30 36 40 38 40 42 38 38 39
51 51 52 52 52 52 52 52 53 53 53 53 54 54 54 53 51 45 39 39 38 33 32 34 34 42 45 44 46 34 35 41 37 38 35 32 28 35 27 29 33 33 35 31 32 35 35 38 40 41 41 40 41 41
50 51 51 51 51 52 52 52 53 53 53 54 54 54 52 50 47 44 38 39 41 37 31 32 44 39 43 45 44 43 40 40 40 40 32 30 28 35 32 30 31 33 32 32 32 33 36 36 39 40 39 40 39 40
49 48 48 51 51 51 51 52 53 53 54 54 52 51 50 47 45 41 38 40 44 39 31 32 39 39 42 43 42 43 42 39 34 29 29 29 34 32 31 30 29 33 32 28 30 37 36 36 39 40 37 37 39 37
45 46 51 51 51 51 51 51 51 51 49 48 48 47 46 46 45 41 33 41 44 45 32 26 37 36 39 41 39 38 39 39 38 32 31 33 33 32 25 26 34 35 36 35 35 35 35 37 39 40 37 38 39 37
45 48 49 49 49 49 49 48 48 48 48 47 46 45 45 44 42 36 35 40 43 44 33 26 27 34 37 37 36 36 37 35 36 32 30 32 31 31 27 23 32 34 34 34 36 34 32 36 34 38 38 38 38 38
47 48 48 48 48 48 47 47 46 45 45 45 45 46 46 45 44 37 40 42 43 38 37 26 25 29 35 29 28 34 32 33 31 31 31 29 29 29 22 31 30 32 34 33 33 34 33 35 35 35 37 37 34 34
48 48 48 49 49 49 48 48 48 48 47 47 47 47 44 40 37 37 42 42 42 40 30 30 23 22 34 30 31 31 32 25 30 26 28 29 26 20 28 29 30 31 30 29 31 33 34 33 33 34 34 34 32 33
47 48 49 49 49 49 48 48 48 47 47 46 45 40 32 33 40 41 39 35 33 32 32 28 31 23 31 30 27 27 28 26 19 26 29 23 24 32 31 32 31 29 29 29 23 26 30 27 29 31 31 32 32 31
48 49 49 48 48 48 48 47 46 45 46 41 34 30 36 39 39 32 24 26 25 24 29 28 29 24 31 25 25 28 23 23 16 21 21 21 21 25 26 27 28 29 29 28 28 28 29 28 26 26 27 29 30 30
48 48 48 48 48 48 47 46 44 40 38 39 35 37 36 29 26 24 17 21 23 22 25 25 25 29 27 31 25 25 20 21 14 24 18 16 22 26 26 24 28 28 27 26 28 25 26 26 26 25 25 25 27 28
48 48 48 48 47 47 46 45 44 42 41 39 32 26 27 22 18 19 13 17 18 23 23 23 22 26 25 27 23 22 16 16 24 17 16 21 26 28 25 26 27 29 26 25 25 26 26 25 26 24 22 25 26 26
48 48 48 47 47 46 45 44 43 40 38 28 25 16 18 18 19 21 22 23 23 26 25 28 24 26 24 21 20 16 20 20 13 10 13 23 25 26 27 28 26 25 25 23 23 23 22 22 22 23 24 24 24 24
46 46 46 45 45 44 43 41 39 37 33 23 25 16 17 18 17 17 18 22 24 28 27 25 24 27 21 16 19 17 12 10 14 15 23 27 27 26 25 26 26 25 22 20 22 21 21 21 20 21 23 24 25 25
44 43 42 44 43 42 41 40 38 34 24 23 20 18 20 22 19 20 22 22 25 27 28 27 21 18 16 18 14 13 13 11 18 22 26 27 26 26 26 26 25 23 22 21 21 21 22 20 19 20 23 24 24 25
42 36 43 42 41 39 39 36 32 20 21 21 18 24 23 24 22 22 25 23 24 26 22 22 16 15 14 14 12 18 15 21 22 24 26 26 23 22 22 23 22 22 22 21 20 20 20 20 20 20 20 24 26 27
37 41 42 41 40 37 30 28 23 21 17 20 20 21 23 25 23 22 22 23 24 23 23 19 18 14 13 12 16 21 22 22 23 23 23 23 22 22 22 21 22 21 20 19 18 18 19 19 20 22 23 25 25 26
39 40 40 40 39 32 25 22 24 16 18 22 22 23 23 23 22 23 23 23 24 24 22 19 16 15 18 21 19 20 21 21 19 21 22 22 22 21 20 19 18 18 19 19 20 20 21 21 22 24 25 25 24 26
39 38 37 35 37 28 21 19 26 20 17 17 19 17 18 19 20 24 22 21 23 21 18 16 19 21 20 21 22 20 21 22 20 17 18 21 23 20 19 19 19 20 20 21 21 24 22 23 25 26 25 25 23 24
36 35 34 31 22 20 16 15 15 17 18 15 12 16 15 17 16 17 17 16 18 16 16 20 20 22 22 22 22 21 19 19 17 16 15 14 18 19 18 21 21 21 20 20 20 21 22 22 24 25 25 24 24 23
31 33 27 27 20 17 13 13 15 15 16 12 13 12 14 14 13 12 11 13 15 18 19 19 20 20 19 19 19 20 19 18 18 17 20 19 15 16 17 19 18 17 18 19 19 20 21 24 25 25 24 23 24 24
31 29 22 22 18 17 9 13 14 11 14 11 9 12 10 10 9 10 11 14 16 18 20 20 20 20 18 19 19 19 19 18 17 17 18 18 18 19 18 18 19 17 17 19 22 22 22 25 24 23 23 23 22 21
25 14 11 12 15 10 11 10 11 12 11 11 12 10 9 9 8 10 13 15 19 22 21 19 18 17 18 18 17 17 18 19 17 18 19 17 16 17 19 19 19 20 21 22 22 23 23 23 23 22 22 21 21 21
17 10 12 9 10 11 10 11 10 13 9 5 7 9 8 5 10 10 12 15 18 18 18 18 17 16 14 15 17 17 19 18 16 15 18 18 18 18 19 21 21 22 24 22 22 22 22 22 22 21 21 21 20 20
8 6 10 11 11 12 11 9 7 7 7 7 7 6 5 8 7 8 13 14 15 15 15 14 13 13 14 16 14 15 17 20 19 16 18 20 19 18 17 17 18 21 24 24 23 22 21 21 21 21 22 23 24 20
6 7 11 16 14 12 11 10 11 10 6 5 8 7 7 2 6 13 16 16 14 16 17 16 15 14 14 15 17 19 20 21 20 19 21 21 22 22 20 19 19 22 24 24 24 23 21 20 20 19 19 19 19 19
7 8 5 6 7 7 5 6 7 5 8 9 9 4 3 8 10 13 15 17 16 16 16 17 18 18 17 17 19 19 20 20 21 23 22 22 23 22 23 24 25 25 24 24 23 23 22 21 20 19 18 17 17 18
8 9 9 -1 2 7 5 6 7 8 9 9 8 9 10 14 14 14 16 16 16 15 14 14 15 18 18 19 20 20 21 18 16 15 14 14 16 18 22 23 23 23 24 23 24 22 20 19 18 18 18 17 17 17
5 7 6 -1 0 5 5 3 5 5 7 9 9 10 12 14 15 17 15 14 13 12 13 14 16 15 15 15 15 17 22 20 19 16 14 14 15 19 21 21 22 23 24 24 23 23 25 21 21 18 17 17 16 16
6 6 6 6 5 4 2 1 1 5 4 4 4 5 8 10 14 16 14 13 13 13 14 14 13 15 15 13 14 14 18 21 19 20 20 19 20 20 20 21 21 22 21 21 20 20 19 19 18 17 17 16 17 15
5 0 3 2 4 1 0 0 -0 2 2 4 5 4 7 8 10 13 14 13 11 11 13 13 11 12 15 16 19 21 25 23 21 20 19 19 19 20 20 21 21 21 20 20 20 19 18 17 16 15 14 14 14 14
-2 -2 -4 1 1 2 1 -1 1 1 2 3 3 2 3 4 6 12 16 15 12 11 11 12 13 15 16 18 19 20 23 24 27 28 27 25 24 22 20 20 20 20 19 18 18 17 16 15 14 14 13 13 13 12

GFSWCAN_sfc_temp_228.txt.gz
Temp
52 51 52 52 52 53 53 53 53 53 53 53 53 53 54 54 53 51 45 44 45 38 36 38 41 38 37 37 31 33 31 31 30 28 28 28 27 30 26 31 28 25 22 21 25 21 19 33 32 28 30 33 35 35
52 51 51 52 52 52 53 53 53 52 52 53 53 53 53 53 53 53 39 43 43 39 34 38 39 41 40 39 38 34 34 32 34 30 31 30 28 27 25 22 32 24 31 27 29 25 32 35 33 37 37 34 35 34
51 51 51 51 52 52 52 52 52 52 52 52 53 53 53 53 54 52 39 39 39 33 32 33 32 37 42 42 43 34 33 38 34 34 31 29 25 29 21 23 27 28 30 26 28 31 32 35 38 38 38 36 38 37
50 50 51 51 51 51 51 51 51 52 52 52 53 53 53 53 53 47 39 40 41 36 31 29 41 36 42 42 41 40 37 36 36 35 30 29 26 30 23 24 23 27 27 27 29 32 32 33 35 36 37 38 35 34
50 50 50 50 50 50 51 50 50 51 52 52 52 53 53 53 47 42 39 39 41 38 29 28 37 39 41 40 39 39 36 33 31 28 28 26 29 27 26 25 21 28 27 26 23 32 29 29 36 36 34 33 34 33
49 49 49 48 49 48 48 48 50 51 52 52 52 52 50 46 47 41 33 38 40 38 30 24 34 33 36 38 37 35 35 35 33 30 29 29 30 27 21 17 27 30 32 31 27 31 32 32 35 35 32 34 35 34
48 47 47 45 48 50 51 51 51 51 51 50 47 46 45 44 39 36 34 37 43 41 30 24 24 31 33 34 32 32 33 32 31 28 26 27 26 29 23 16 26 30 33 31 31 29 27 31 29 33 33 34 35 34
45 46 48 48 49 49 49 49 48 47 44 44 44 43 43 42 40 33 38 44 43 36 34 25 22 24 31 27 25 30 28 29 27 27 25 24 24 23 17 25 28 30 30 30 30 31 29 30 31 31 32 32 30 29
46 46 46 46 46 45 46 46 46 45 45 44 44 45 39 35 31 31 41 43 40 36 26 25 20 19 30 27 28 27 28 19 26 18 23 25 20 15 24 26 27 29 26 25 28 29 29 28 29 29 28 28 27 27
47 47 47 47 46 45 44 44 43 43 43 44 41 36 29 32 41 40 36 32 30 30 28 24 27 20 26 26 25 23 23 21 11 21 25 17 19 29 27 25 25 24 24 24 18 21 23 22 23 24 24 26 26 26
48 48 48 48 48 48 47 47 47 47 46 37 31 27 33 39 34 28 18 19 20 16 24 23 24 20 28 21 21 25 17 18 5 17 16 15 18 17 17 20 19 21 21 20 20 21 23 21 20 21 23 24 25 26
48 48 48 48 47 47 46 46 45 36 34 36 34 36 32 26 20 15 10 18 20 19 23 21 21 25 23 27 21 22 16 14 5 19 10 10 14 20 16 14 18 19 18 18 20 17 19 22 21 20 21 22 23 25
48 48 48 47 47 46 46 45 44 43 40 36 28 20 20 17 11 11 8 11 14 19 19 18 17 19 19 21 16 16 5 8 20 5 7 9 18 18 12 15 19 20 18 18 20 22 21 20 23 20 19 22 22 22
48 47 47 46 46 46 45 43 43 40 33 23 17 9 11 10 13 14 15 17 19 22 20 20 16 17 17 11 12 3 14 13 0 -3 1 9 14 15 16 19 18 15 17 18 19 20 19 19 19 21 21 21 20 20
47 46 46 45 44 43 43 42 41 33 28 15 15 4 6 12 12 10 13 17 22 21 19 16 15 18 12 4 8 9 1 -4 2 3 11 16 20 17 19 22 18 16 14 13 14 16 17 17 18 18 21 20 21 21
44 43 41 44 43 42 42 39 35 31 20 14 14 9 17 14 16 20 20 16 20 19 21 19 9 5 5 6 2 0 -0 -2 7 11 17 18 20 19 19 21 20 16 14 15 13 16 18 17 17 17 19 19 20 22
42 35 42 42 42 40 40 32 27 17 14 11 15 21 18 19 18 18 22 18 18 17 10 11 2 5 5 2 0 9 3 10 12 15 18 18 15 14 15 19 21 20 18 15 12 14 16 17 16 16 15 19 23 24
36 39 42 42 39 36 27 25 18 13 12 18 16 20 22 19 16 17 20 22 18 13 12 7 9 1 1 -1 5 11 11 12 15 15 15 17 14 15 19 19 20 18 17 16 14 15 15 15 16 18 21 22 23 24
36 37 40 40 36 28 17 16 18 7 17 20 20 21 21 20 22 23 22 22 22 17 13 7 4 2 8 10 9 10 11 12 14 16 16 15 15 16 18 16 15 15 15 15 16 17 17 17 19 20 22 24 23 24
40 39 38 37 37 22 11 10 20 12 9 15 18 14 17 17 15 20 17 16 21 12 6 3 9 14 11 12 14 13 16 15 15 14 14 16 11 10 15 14 16 17 17 17 17 22 20 20 23 23 24 24 23 22
35 32 35 28 20 16 11 7 8 14 16 6 8 11 9 11 9 8 6 9 7 3 8 13 12 14 14 12 13 15 16 15 14 14 13 13 15 15 15 17 18 18 17 17 16 18 20 19 21 23 23 23 23 22
26 34 22 25 14 8 7 10 9 11 8 4 4 6 2 2 1 -1 1 1 2 8 8 9 10 12 15 14 15 16 17 17 17 17 20 18 13 12 13 15 15 14 15 15 17 17 18 20 22 24 22 21 22 21
30 26 16 15 10 7 2 9 4 4 2 0 0 1 -1 -2 -1 2 -2 2 5 8 12 11 10 9 14 16 17 17 17 16 16 16 16 16 17 17 16 15 15 14 15 17 19 19 19 23 24 22 21 21 21 19
25 9 4 3 6 1 3 1 5 4 1 1 -1 -3 -3 -3 -1 -1 0 5 12 14 16 11 13 14 16 16 15 15 16 17 16 16 17 15 14 15 15 16 17 18 18 19 19 20 21 20 22 19 20 18 19 19
12 6 4 1 2 2 -1 -1 -3 1 -2 -4 -4 -3 -4 -4 -3 -4 1 9 11 12 15 15 15 14 12 13 15 16 18 17 15 14 16 17 16 16 16 18 19 20 22 20 19 21 18 18 17 18 17 19 19 18
-1 -1 1 0 2 3 2 -1 -3 -3 -2 -4 -4 -2 -4 -4 -6 -1 8 10 12 13 13 13 12 12 13 15 13 14 15 18 17 15 17 18 16 16 16 16 16 19 22 22 21 20 17 19 19 18 19 21 23 19
-2 -3 6 15 11 9 6 7 7 2 -5 -5 -2 -4 -4 -7 -3 10 14 13 12 14 15 15 14 13 13 14 16 18 18 19 19 18 19 20 20 20 19 17 16 20 22 22 22 20 17 18 17 18 17 18 18 18
2 3 -1 0 0 1 -4 -2 -2 -4 -0 3 3 -4 -2 4 7 11 13 15 15 15 14 15 16 16 16 16 17 18 19 20 19 20 20 20 21 21 20 22 24 25 22 22 22 20 19 18 17 17 16 15 15 17
1 6 5 -5 -5 -2 -3 -3 -1 4 7 4 2 5 7 12 13 12 14 15 15 13 12 12 14 17 17 18 18 19 19 17 15 13 13 13 14 16 21 22 21 22 22 22 24 21 19 18 18 17 17 16 17 17
-1 4 -0 -7 -5 -3 -4 -2 -2 1 5 7 7 9 11 13 14 15 14 13 11 10 11 12 15 14 13 13 14 16 20 19 17 16 13 13 15 18 20 20 21 22 22 22 22 22 25 21 21 18 17 16 16 15
3 0 -2 -1 -3 -4 -5 -3 -3 5 -1 -5 -1 1 5 7 12 14 13 12 12 12 12 12 11 14 14 13 13 14 17 21 19 19 19 18 19 19 19 20 21 21 21 20 19 19 18 18 17 17 16 16 17 15
-1 -9 -6 -4 -5 -7 -7 -9 -8 -7 -6 -6 -4 -1 2 6 7 11 13 12 10 9 12 11 10 10 13 15 18 19 24 22 20 19 19 19 19 19 20 20 21 20 20 19 18 18 17 16 16 15 14 14 14 15
-10 -9 -10 -7 -8 -7 -8 -7 -7 -8 -7 -8 -6 -4 -2 2 4 10 14 14 11 10 10 11 12 14 15 17 18 19 22 22 27 28 27 26 25 22 20 20 20 19 19 18 17 17 16 15 14 14 13 12 12 11